tititudorancea.com
Station Historical Data
Daily Summary for June 9, 2018 Units:  Metric    English   Both
« Previous Day
Next Day »
Daily Weekly Monthly Yearly Custom
  High: Low: Average:
Temperature: -17.8 °C 2.4 °C 9.2 °C
Dew Point: -17.8 °C 1.4 °C 8.5 °C
Humidity: Humidity % 64 % 96 %
Wind Speed: 0 km/h 0 km/h 2.1 km/h
Wind Gust: 0 km/h - -
Wind:- - NNE
Pressure: 0 hPa 1018.5 hPa -
Precipitation: 0.25 mm    
Historical Graphs
 
 
Ararat weather Find more about Weather in Ararat, AU


 



 


Tabular Data for June 9, 2018
Time Temperature Dew Point Pressure Wind Wind Speed Wind Gust Humidity Rainfall Rate (Hourly)
-17.8 °C -17.8 °C 0 hPa Calm     Humidity % 0 mm
00:04 10.3 °C 9.5 °C 1018.5 hPa North 13 km/h 7.2 km/h 95 % 0 mm
00:09 10.3 °C 9.5 °C 1018.5 hPa North 9.3 km/h 3.4 km/h 95 % 0 mm
00:14 10.2 °C 9.4 °C 1018.5 hPa North 14.8 km/h 5.8 km/h 95 % 0 mm
00:19 10.2 °C 9.4 °C 1018.5 hPa North 7.4 km/h 5.8 km/h 95 % 0 mm
00:24 10.2 °C 9.4 °C 1018.5 hPa North 9.7 km/h 10 km/h 95 % 0 mm
00:29 10.2 °C 9.4 °C 1018.5 hPa North 14.8 km/h 5.5 km/h 95 % 0 mm
00:34 10.1 °C 9.3 °C 1018.5 hPa North 9.3 km/h 8.2 km/h 95 % 0 mm
00:39 10.1 °C 9.3 °C 1018.5 hPa North 11.1 km/h 4.3 km/h 95 % 0 mm
00:44 10.1 °C 9.5 °C 1018.5 hPa North 9.7 km/h 5.6 km/h 96 % 0 mm
00:49 10.1 °C 9.4 °C 1018.8 hPa North 7.4 km/h 4.7 km/h 96 % 0 mm
00:54 10.1 °C 9.5 °C 1018.8 hPa North 11.1 km/h 4.7 km/h 96 % 0 mm
00:59 10.1 °C 9.5 °C 1018.8 hPa North 7.4 km/h 5.6 km/h 96 % 0 mm
01:04 10.1 °C 9.5 °C 1018.8 hPa North 8 km/h 5.3 km/h 96 % 0 mm
01:09 10.1 °C 9.5 °C 1018.8 hPa North 9.7 km/h 5 km/h 96 % 0 mm
01:14 10.1 °C 9.5 °C 1018.5 hPa North 11.3 km/h 7.6 km/h 96 % 0 mm
01:19 10.1 °C 9.5 °C 1018.5 hPa North 7.4 km/h 5.1 km/h 96 % 0 mm
01:24 10.1 °C 9.5 °C 1018.5 hPa North 9.7 km/h 6.4 km/h 96 % 0 mm
01:29 10.1 °C 9.5 °C 1018.5 hPa North 14.8 km/h 8 km/h 96 % 0 mm
01:34 10.1 °C 9.5 °C 1018.5 hPa North 11.1 km/h 8.4 km/h 96 % 0 mm
01:39 10.1 °C 9.5 °C 1018.5 hPa North 11.1 km/h 6.1 km/h 96 % 0 mm
01:44 10.1 °C 9.4 °C 1018.5 hPa North 9.3 km/h 5.5 km/h 96 % 0 mm
01:49 10.1 °C 9.4 °C 1018.5 hPa North 13 km/h 8.4 km/h 96 % 0 mm
01:54 10 °C 9.4 °C 1018.5 hPa North 9.3 km/h 6.8 km/h 96 % 0 mm
01:59 10 °C 9.4 °C 1018.5 hPa North 7.4 km/h 5.8 km/h 96 % 0 mm
02:04 10 °C 9.4 °C 1018.5 hPa North 8 km/h 6.6 km/h 96 % 0 mm
02:09 9.9 °C 9.3 °C 1018.5 hPa North 7.4 km/h 7.2 km/h 96 % 0 mm
02:14 9.9 °C 9.3 °C 1018.5 hPa North 11.1 km/h 7.4 km/h 96 % 0 mm
02:19 9.9 °C 9.3 °C 1018.5 hPa North 13 km/h 9.5 km/h 96 % 0 mm
02:24 9.9 °C 9.3 °C 1018.5 hPa North 13 km/h 8.4 km/h 96 % 0 mm
02:29 9.9 °C 9.3 °C 1018.5 hPa North 16.7 km/h 9.5 km/h 96 % 0 mm
02:34 9.9 °C 9.3 °C 1018.5 hPa North 11.1 km/h 4.2 km/h 96 % 0 mm
02:39 9.9 °C 9.3 °C 1018.5 hPa North 13 km/h 8.2 km/h 96 % 0 mm
02:44 9.9 °C 9.3 °C 1018.8 hPa North 5.6 km/h 3.5 km/h 96 % 0 mm
02:49 9.9 °C 9.3 °C 1018.8 hPa North 9.3 km/h 8.5 km/h 96 % 0 mm
02:54 9.8 °C 9.2 °C 1018.8 hPa North 6.4 km/h 6.4 km/h 96 % 0 mm
02:59 9.8 °C 9.2 °C 1018.8 hPa North 11.1 km/h 5.3 km/h 96 % 0 mm
03:04 9.9 °C 9.3 °C 1018.8 hPa North 5.6 km/h 3.4 km/h 96 % 0 mm
03:09 9.9 °C 9.3 °C 1018.8 hPa North 7.4 km/h 3.4 km/h 96 % 0 mm
03:14 9.9 °C 9.3 °C 1018.8 hPa North 7.4 km/h 5.1 km/h 96 % 0 mm
03:19 9.9 °C 9.3 °C 1018.8 hPa North 7.4 km/h 5.3 km/h 96 % 0 mm
03:24 9.9 °C 9.3 °C 1018.8 hPa North 9.3 km/h 3.4 km/h 96 % 0 mm
03:29 9.9 °C 9.3 °C 1018.8 hPa North 5.6 km/h 2.6 km/h 96 % 0 mm
03:34 9.9 °C 9.3 °C 1018.8 hPa North 5.6 km/h 4.3 km/h 96 % 0 mm
03:39 9.9 °C 9.3 °C 1018.8 hPa North 3.7 km/h 1.1 km/h 96 % 0 mm
03:44 9.9 °C 9.3 °C 1018.8 hPa North 5.6 km/h 2.1 km/h 96 % 0 mm
03:49 9.8 °C 9.2 °C 1018.8 hPa North 5.6 km/h 4.3 km/h 96 % 0 mm
03:54 9.9 °C 9.3 °C 1018.8 hPa North 1.6 km/h 0.8 km/h 96 % 0 mm
03:59 9.9 °C 9.3 °C 1018.8 hPa North 3.7 km/h 2.1 km/h 96 % 0 mm
04:04 9.8 °C 9.2 °C 1018.8 hPa North 5.6 km/h 0.6 km/h 96 % 0 mm
04:09 9.8 °C 9.2 °C 1018.8 hPa North 5.6 km/h 2.9 km/h 96 % 0 mm
04:14 9.8 °C 9.2 °C 1018.8 hPa North 1.9 km/h   96 % 0 mm
04:19 9.8 °C 9.2 °C 1018.8 hPa North 5.6 km/h 3.4 km/h 96 % 0 mm
04:24 9.8 °C 9.2 °C 1018.8 hPa North 5.6 km/h 2.9 km/h 96 % 0 mm
04:29 9.8 °C 9.2 °C 1019.2 hPa North 4.8 km/h 3.5 km/h 96 % 0 mm
04:34 9.7 °C 9.1 °C 1019.2 hPa North 3.7 km/h 2.3 km/h 96 % 0 mm
04:39 9.7 °C 9.1 °C 1019.2 hPa Calm     96 % 0 mm
04:44 9.7 °C 9.1 °C 1019.2 hPa North 3.7 km/h 2.1 km/h 96 % 0 mm
04:49 9.7 °C 9.1 °C 1019.2 hPa North 5.6 km/h   96 % 0 mm
04:54 9.7 °C 9.1 °C 1019.2 hPa Calm     96 % 0 mm
04:59 9.7 °C 9.3 °C 1019.2 hPa North 4.8 km/h 1.9 km/h 97 % 0 mm
05:04 9.7 °C 9.3 °C 1019.2 hPa North 3.7 km/h 0.6 km/h 97 % 0 mm
05:09 9.7 °C 9.3 °C 1019.2 hPa North 1.9 km/h   97 % 0 mm
05:14 9.7 °C 9.3 °C 1019.2 hPa Calm   0.8 km/h 97 % 0 mm
05:19 9.7 °C 9.3 °C 1019.2 hPa North 3.7 km/h 2.4 km/h 97 % 0 mm
05:24 9.8 °C 9.3 °C 1019.2 hPa North 5.6 km/h 1 km/h 97 % 0 mm
05:29 9.7 °C 9.3 °C 1019.2 hPa Calm     97 % 0 mm
05:34 9.7 °C 9.3 °C 1019.5 hPa North 4.8 km/h 3.7 km/h 97 % 0 mm
05:39 9.7 °C 9.3 °C 1019.5 hPa North 3.7 km/h 1.3 km/h 97 % 0 mm
05:44 9.7 °C 9.3 °C 1019.5 hPa Calm     97 % 0 mm
05:49 9.8 °C 9.3 °C 1019.5 hPa North 5.6 km/h 4.2 km/h 97 % 0 mm
05:54 9.7 °C 9.3 °C 1019.5 hPa Calm     97 % 0 mm
05:59 9.7 °C 9.3 °C 1019.5 hPa North 3.7 km/h 3.4 km/h 97 % 0 mm
06:04 9.7 °C 9.3 °C 1019.5 hPa Calm     97 % 0 mm
06:09 9.8 °C 9.3 °C 1019.5 hPa North 1.9 km/h 0.8 km/h 97 % 0 mm
06:14 9.7 °C 9.3 °C 1019.9 hPa North 3.2 km/h 0.2 km/h 97 % 0 mm
06:19 9.7 °C 9.3 °C 1019.9 hPa North 5.6 km/h 2.4 km/h 97 % 0 mm
06:24 9.7 °C 9.3 °C 1019.9 hPa North 5.6 km/h 1.6 km/h 97 % 0 mm
06:29 9.7 °C 9.3 °C 1019.9 hPa Calm     97 % 0 mm
06:34 9.7 °C 9.3 °C 1019.9 hPa Calm     97 % 0 mm
06:39 9.7 °C 9.2 °C 1019.9 hPa North 1.9 km/h   97 % 0 mm
06:44 9.7 °C 9.2 °C 1020.2 hPa Calm     97 % 0 mm
06:49 9.7 °C 9.2 °C 1020.2 hPa North 3.7 km/h 0.8 km/h 97 % 0 mm
06:54 9.7 °C 9.2 °C 1020.2 hPa North 3.7 km/h 1 km/h 97 % 0 mm
06:59 9.7 °C 9.2 °C 1020.2 hPa Calm   0.5 km/h 97 % 0 mm
07:04 9.7 °C 9.2 °C 1020.2 hPa North 5.6 km/h 2.4 km/h 97 % 0 mm
07:09 9.7 °C 9.2 °C 1020.2 hPa North 5.6 km/h 3.5 km/h 97 % 0 mm
07:14 9.7 °C 9.2 °C 1020.2 hPa North 7.4 km/h 4.8 km/h 97 % 0 mm
07:19 9.6 °C 9 °C 1020.2 hPa North 5.6 km/h 4.3 km/h 96 % 0 mm
07:24 9.5 °C 8.9 °C 1020.5 hPa North 5.6 km/h 3.1 km/h 96 % 0 mm
07:29 9.6 °C 9.1 °C 1020.5 hPa Calm     97 % 0 mm
07:34 9.6 °C 9.1 °C 1020.5 hPa North 3.7 km/h   97 % 0 mm
07:39 9.5 °C 9.1 °C 1020.5 hPa North 1.9 km/h 0.2 km/h 97 % 0 mm
07:44 9.4 °C 8.8 °C 1020.5 hPa North 5.6 km/h 3.2 km/h 96 % 0 mm
07:46 9.4 °C 8.8 °C 1020.5 hPa North 5.6 km/h 3.2 km/h 96 % 0 mm
07:46 9.4 °C 8.8 °C 1020.5 hPa North 5.6 km/h 3.2 km/h 96 % 0 mm
07:46 9.4 °C 8.8 °C 1020.5 hPa North 5.6 km/h 3.2 km/h 96 % 0 mm
07:46 9.4 °C 8.8 °C 1020.5 hPa North 5.6 km/h 3.2 km/h 96 % 0 mm
07:46 9.4 °C 8.8 °C 1020.5 hPa North 5.6 km/h 3.4 km/h 96 % 0 mm
07:46 9.4 °C 8.8 °C 1020.5 hPa North 5.6 km/h 3.7 km/h 96 % 0 mm
07:46 9.4 °C 8.8 °C 1020.5 hPa North 5.6 km/h 3.9 km/h 96 % 0 mm
07:46 9.4 °C 9 °C 1020.5 hPa North 6.4 km/h 4 km/h 97 % 0 mm
07:46 9.4 °C 9 °C 1020.5 hPa North 5.6 km/h 4 km/h 97 % 0 mm
07:46 9.4 °C 9 °C 1020.5 hPa North 5.6 km/h 4 km/h 97 % 0 mm
07:46 9.4 °C 9 °C 1020.5 hPa North 5.6 km/h 4.2 km/h 97 % 0 mm
07:46 9.4 °C 9 °C 1020.5 hPa North 6.4 km/h 4.3 km/h 97 % 0 mm
07:46 9.4 °C 9 °C 1020.5 hPa North 6.4 km/h 4.5 km/h 97 % 0 mm
07:47 9.4 °C 9 °C 1020.5 hPa North 5.6 km/h 4.8 km/h 97 % 0 mm
07:47 9.4 °C 9 °C 1020.5 hPa North 5.6 km/h 5 km/h 97 % 0 mm
07:47 9.4 °C 9 °C 1020.5 hPa North 5.6 km/h 5 km/h 97 % 0 mm
07:47 9.4 °C 9 °C 1020.5 hPa North 5.6 km/h 5 km/h 97 % 0 mm
07:47 9.4 °C 9 °C 1020.5 hPa North 5.6 km/h 4.8 km/h 97 % 0 mm
07:47 9.4 °C 9 °C 1020.5 hPa North 5.6 km/h 4.7 km/h 97 % 0 mm
07:47 9.4 °C 9 °C 1020.5 hPa North 5.6 km/h 4.3 km/h 97 % 0 mm
07:47 9.4 °C 9 °C 1020.5 hPa North 5.6 km/h 4 km/h 97 % 0 mm
07:47 9.4 °C 9 °C 1020.5 hPa North 5.6 km/h 3.9 km/h 97 % 0 mm
07:47 9.4 °C 9 °C 1020.5 hPa North 5.6 km/h 3.4 km/h 97 % 0 mm
07:47 9.4 °C 9 °C 1020.5 hPa North 5.6 km/h 2.7 km/h 97 % 0 mm
07:48 9.4 °C 9 °C 1020.5 hPa North 5.6 km/h 2.1 km/h 97 % 0 mm
07:48 9.4 °C 9 °C 1020.5 hPa North 5.6 km/h 1.3 km/h 97 % 0 mm
07:48 9.4 °C 9 °C 1020.5 hPa North 5.6 km/h 1 km/h 97 % 0 mm
07:48 9.4 °C 9 °C 1020.5 hPa North 5.6 km/h 0.6 km/h 97 % 0 mm
07:48 9.4 °C 9 °C 1020.5 hPa North 5.6 km/h 0.3 km/h 97 % 0 mm
07:48 9.4 °C 9 °C 1020.5 hPa North 5.6 km/h   97 % 0 mm
07:48 9.4 °C 9 °C 1020.5 hPa North 5.6 km/h   97 % 0 mm
07:48 9.4 °C 9 °C 1020.5 hPa North 5.6 km/h   97 % 0 mm
07:48 9.4 °C 9 °C 1020.5 hPa North 5.6 km/h   97 % 0 mm
07:48 9.4 °C 9 °C 1020.5 hPa North 5.6 km/h 0.2 km/h 97 % 0 mm
07:48 9.4 °C 9 °C 1020.5 hPa North 5.6 km/h 0.3 km/h 97 % 0 mm
07:49 9.4 °C 9 °C 1020.5 hPa North 3.7 km/h 0.5 km/h 97 % 0 mm
07:49 9.4 °C 9 °C 1020.5 hPa North 3.7 km/h 0.5 km/h 97 % 0 mm
07:49 9.4 °C 9 °C 1020.5 hPa North 3.7 km/h 0.8 km/h 97 % 0 mm
07:49 9.4 °C 9 °C 1020.5 hPa North 3.7 km/h 1 km/h 97 % 0 mm
07:49 9.4 °C 9 °C 1020.5 hPa North 3.7 km/h 1.3 km/h 97 % 0 mm
07:49 9.4 °C 9 °C 1020.5 hPa North 3.7 km/h 1.3 km/h 97 % 0 mm
07:49 9.4 °C 9 °C 1020.5 hPa North 3.7 km/h 1.3 km/h 97 % 0 mm
07:49 9.4 °C 9 °C 1020.5 hPa North 3.7 km/h 1.3 km/h 97 % 0 mm
07:49 9.4 °C 9 °C 1020.5 hPa North 3.7 km/h 1.3 km/h 97 % 0 mm
07:49 9.4 °C 9 °C 1020.5 hPa North 3.7 km/h 1.3 km/h 97 % 0 mm
07:49 9.4 °C 9 °C 1020.5 hPa North 3.7 km/h 1.3 km/h 97 % 0 mm
07:49 9.4 °C 9 °C 1020.5 hPa North 3.7 km/h 1.1 km/h 97 % 0 mm
07:49 9.4 °C 9 °C 1020.5 hPa North 3.7 km/h 1.1 km/h 97 % 0 mm
07:50 9.4 °C 9 °C 1020.5 hPa North 1.6 km/h 6.4 km/h 97 % 0 mm
07:50 9.4 °C 9 °C 1020.5 hPa North 3.7 km/h 0.8 km/h 97 % 0 mm
07:50 9.4 °C 9 °C 1020.5 hPa North 3.7 km/h 0.5 km/h 97 % 0 mm
07:50 9.4 °C 9 °C 1020.5 hPa North 3.7 km/h   97 % 0 mm
07:50 9.4 °C 9 °C 1020.5 hPa North 3.7 km/h   97 % 0 mm
07:50 9.4 °C 9 °C 1020.5 hPa North 3.7 km/h   97 % 0 mm
07:50 9.4 °C 9 °C 1020.5 hPa North 3.7 km/h 0.2 km/h 97 % 0 mm
07:50 9.4 °C 9 °C 1020.5 hPa North 3.7 km/h 0.2 km/h 97 % 0 mm
07:50 9.4 °C 9 °C 1020.5 hPa North 3.7 km/h 0.3 km/h 97 % 0 mm
07:50 9.4 °C 9 °C 1020.5 hPa North 3.7 km/h 0.5 km/h 97 % 0 mm
07:50 9.4 °C 9 °C 1020.5 hPa North 3.7 km/h 0.5 km/h 97 % 0 mm
07:50 9.4 °C 9 °C 1020.5 hPa North 3.7 km/h 0.5 km/h 97 % 0 mm
07:51 9.4 °C 9 °C 1020.5 hPa North 1.9 km/h 0.5 km/h 97 % 0 mm
07:51 9.4 °C 9 °C 1020.5 hPa North 1.9 km/h 0.5 km/h 97 % 0 mm
07:51 9.4 °C 9 °C 1020.5 hPa North 1.9 km/h 0.5 km/h 97 % 0 mm
07:51 9.4 °C 9 °C 1020.5 hPa North 1.9 km/h 0.5 km/h 97 % 0 mm
07:51 9.4 °C 9 °C 1020.5 hPa North 1.9 km/h 0.5 km/h 97 % 0 mm
07:51 9.4 °C 9 °C 1020.5 hPa North 1.9 km/h 0.5 km/h 97 % 0 mm
07:51 9.4 °C 9 °C 1020.5 hPa North 1.9 km/h 0.5 km/h 97 % 0 mm
07:51 9.4 °C 9 °C 1020.5 hPa North 1.9 km/h 0.5 km/h 97 % 0 mm
07:51 9.4 °C 9 °C 1020.5 hPa North 1.9 km/h 0.3 km/h 97 % 0 mm
07:51 9.4 °C 9 °C 1020.5 hPa North 1.9 km/h 0.3 km/h 97 % 0 mm
07:51 9.4 °C 9 °C 1020.5 hPa North 1.9 km/h 0.2 km/h 97 % 0 mm
07:51 9.4 °C 9 °C 1020.5 hPa North 1.9 km/h   97 % 0 mm
07:51 9.4 °C 9 °C 1020.5 hPa North 1.9 km/h   97 % 0 mm
07:51 9.4 °C 9 °C 1020.5 hPa North 1.9 km/h   97 % 0 mm
07:51 9.4 °C 9 °C 1020.5 hPa North 1.9 km/h   97 % 0 mm
07:52 9.4 °C 9 °C 1020.5 hPa Calm     97 % 0 mm
07:52 9.4 °C 9 °C 1020.5 hPa Calm     97 % 0 mm
07:52 9.4 °C 9 °C 1020.5 hPa Calm     97 % 0 mm
07:52 9.4 °C 9 °C 1020.5 hPa Calm     97 % 0 mm
07:52 9.4 °C 9 °C 1020.5 hPa Calm     97 % 0 mm
07:52 9.4 °C 9 °C 1020.5 hPa Calm     97 % 0 mm
07:52 9.4 °C 9 °C 1020.5 hPa Calm     97 % 0 mm
07:52 9.4 °C 9 °C 1020.5 hPa Calm     97 % 0 mm
07:52 9.4 °C 9 °C 1020.5 hPa North 1.6 km/h   97 % 0 mm
07:52 9.4 °C 9 °C 1020.5 hPa North 3.2 km/h 0.2 km/h 97 % 0 mm
07:52 9.4 °C 9 °C 1020.5 hPa North 1.6 km/h 0.2 km/h 97 % 0 mm
07:52 9.4 °C 9 °C 1020.5 hPa North 3.2 km/h 0.5 km/h 97 % 0 mm
07:52 9.4 °C 9 °C 1020.5 hPa North 1.6 km/h 0.6 km/h 97 % 0 mm
07:52 9.4 °C 9 °C 1020.5 hPa North 1.6 km/h 0.8 km/h 97 % 0 mm
07:53 9.4 °C 9 °C 1020.5 hPa North 3.7 km/h 1 km/h 97 % 0 mm
07:53 9.4 °C 9 °C 1020.5 hPa North 4.8 km/h 1.1 km/h 97 % 0 mm
07:53 9.4 °C 9 °C 1020.5 hPa North 3.7 km/h 1.4 km/h 97 % 0 mm
07:53 9.4 °C 9 °C 1020.5 hPa North 4.8 km/h 1.6 km/h 97 % 0 mm
07:53 9.4 °C 9 °C 1020.5 hPa North 3.7 km/h 1.9 km/h 97 % 0 mm
07:53 9.4 °C 9 °C 1020.5 hPa North 3.7 km/h 2.1 km/h 97 % 0 mm
07:53 9.4 °C 8.9 °C 1020.5 hPa North 3.7 km/h 2.3 km/h 97 % 0 mm
07:53 9.4 °C 8.9 °C 1020.5 hPa North 3.7 km/h 2.6 km/h 97 % 0 mm
07:53 9.4 °C 8.9 °C 1020.5 hPa North 3.7 km/h 2.7 km/h 97 % 0 mm
07:53 9.4 °C 9 °C 1020.5 hPa North 3.7 km/h 2.7 km/h 97 % 0 mm
07:53 9.4 °C 9 °C 1020.5 hPa North 3.7 km/h 2.9 km/h 97 % 0 mm
07:53 9.4 °C 9 °C 1020.5 hPa North 3.7 km/h 2.9 km/h 97 % 0 mm
07:53 9.4 °C 9 °C 1020.5 hPa North 3.7 km/h 2.9 km/h 97 % 0 mm
07:53 9.4 °C 9 °C 1020.5 hPa North 3.7 km/h 2.9 km/h 97 % 0 mm
07:54 9.4 °C 9 °C 1020.5 hPa North 5.6 km/h 2.9 km/h 97 % 0 mm
07:54 9.4 °C 9 °C 1020.5 hPa North 5.6 km/h 2.9 km/h 97 % 0 mm
07:54 9.4 °C 9 °C 1020.5 hPa North 5.6 km/h 2.9 km/h 97 % 0 mm
07:54 9.4 °C 9 °C 1020.5 hPa North 5.6 km/h 2.9 km/h 97 % 0 mm
07:54 9.4 °C 9 °C 1020.5 hPa North 6.4 km/h 3.1 km/h 97 % 0 mm
07:54 9.4 °C 9 °C 1020.5 hPa North 6.4 km/h 3.2 km/h 97 % 0 mm
07:54 9.4 °C 9 °C 1020.5 hPa North 6.4 km/h 3.4 km/h 97 % 0 mm
07:54 9.4 °C 9 °C 1020.5 hPa North 5.6 km/h 3.5 km/h 97 % 0 mm
07:54 9.4 °C 9 °C 1020.5 hPa North 5.6 km/h 3.7 km/h 97 % 0 mm
07:54 9.4 °C 8.9 °C 1020.5 hPa North 5.6 km/h 3.7 km/h 97 % 0 mm
07:54 9.4 °C 8.9 °C 1020.5 hPa North 5.6 km/h 3.7 km/h 97 % 0 mm
07:54 9.4 °C 8.9 °C 1020.5 hPa North 5.6 km/h 3.9 km/h 97 % 0 mm
07:54 9.4 °C 8.9 °C 1020.5 hPa North 5.6 km/h 3.9 km/h 97 % 0 mm
07:54 9.4 °C 8.9 °C 1020.5 hPa North 5.6 km/h 4 km/h 97 % 0 mm
07:55 9.4 °C 9 °C 1020.5 hPa North 5.6 km/h 4 km/h 97 % 0 mm
07:55 9.4 °C 9 °C 1020.5 hPa North 5.6 km/h 4.2 km/h 97 % 0 mm
07:55 9.4 °C 9 °C 1020.5 hPa North 5.6 km/h 4.2 km/h 97 % 0 mm
07:55 9.4 °C 9 °C 1020.5 hPa North 5.6 km/h 4.2 km/h 97 % 0 mm
07:55 9.4 °C 9 °C 1020.5 hPa North 5.6 km/h 4.2 km/h 97 % 0 mm
07:55 9.4 °C 9 °C 1020.5 hPa North 5.6 km/h 4 km/h 97 % 0 mm
07:55 9.4 °C 8.9 °C 1020.5 hPa North 5.6 km/h 3.9 km/h 97 % 0 mm
07:55 9.4 °C 8.9 °C 1020.5 hPa North 5.6 km/h 3.7 km/h 97 % 0 mm
07:55 9.4 °C 8.9 °C 1020.5 hPa North 5.6 km/h 3.5 km/h 97 % 0 mm
07:55 9.4 °C 8.9 °C 1020.5 hPa North 5.6 km/h 3.4 km/h 97 % 0 mm
07:55 9.4 °C 8.9 °C 1020.5 hPa North 5.6 km/h 3.5 km/h 97 % 0 mm
07:55 9.4 °C 8.9 °C 1020.5 hPa North 5.6 km/h 3.5 km/h 97 % 0 mm
07:55 9.4 °C 8.9 °C 1020.5 hPa North 5.6 km/h 3.7 km/h 97 % 0 mm
07:55 9.4 °C 8.9 °C 1020.5 hPa North 5.6 km/h 3.7 km/h 97 % 0 mm
07:56 9.4 °C 8.9 °C 1020.5 hPa North 6.4 km/h 3.9 km/h 97 % 0 mm
07:56 9.4 °C 8.9 °C 1020.5 hPa North 5.6 km/h 4 km/h 97 % 0 mm
07:56 9.4 °C 8.9 °C 1020.9 hPa North 5.6 km/h 4 km/h 97 % 0 mm
07:56 9.4 °C 8.9 °C 1020.9 hPa North 5.6 km/h 4.2 km/h 97 % 0 mm
07:56 9.4 °C 8.9 °C 1020.9 hPa North 5.6 km/h 4.2 km/h 97 % 0 mm
07:56 9.4 °C 8.9 °C 1020.9 hPa North 5.6 km/h 4.3 km/h 97 % 0 mm
07:56 9.4 °C 8.9 °C 1020.9 hPa North 5.6 km/h 4.7 km/h 97 % 0 mm
07:56 9.4 °C 8.9 °C 1020.9 hPa North 5.6 km/h 4.7 km/h 97 % 0 mm
07:56 9.4 °C 8.9 °C 1020.9 hPa North 5.6 km/h 4.5 km/h 97 % 0 mm
07:56 9.4 °C 8.9 °C 1020.9 hPa North 5.6 km/h 4.2 km/h 97 % 0 mm
07:57 9.4 °C 8.9 °C 1020.9 hPa North 5.6 km/h 4.2 km/h 97 % 0 mm
07:57 9.4 °C 8.9 °C 1020.9 hPa North 5.6 km/h 4.2 km/h 97 % 0 mm
07:57 9.4 °C 8.9 °C 1020.5 hPa North 6.4 km/h 4.2 km/h 97 % 0 mm
07:57 9.4 °C 8.9 °C 1020.5 hPa North 6.4 km/h 4.3 km/h 97 % 0 mm
07:57 9.4 °C 8.9 °C 1020.5 hPa North 6.4 km/h 4.5 km/h 97 % 0 mm
07:57 9.4 °C 8.9 °C 1020.5 hPa North 5.6 km/h 4.5 km/h 97 % 0 mm
07:57 9.4 °C 8.9 °C 1020.5 hPa North 5.6 km/h 4.5 km/h 97 % 0 mm
07:57 9.4 °C 8.9 °C 1020.5 hPa North 6.4 km/h 4.5 km/h 97 % 0 mm
07:57 9.4 °C 8.9 °C 1020.5 hPa North 5.6 km/h 4.7 km/h 97 % 0 mm
07:57 9.4 °C 8.9 °C 1020.9 hPa North 5.6 km/h 4.7 km/h 97 % 0 mm
07:57 9.4 °C 8.9 °C 1020.9 hPa North 5.6 km/h 4.8 km/h 97 % 0 mm
07:57 9.4 °C 8.9 °C 1020.9 hPa North 5.6 km/h 5 km/h 97 % 0 mm
07:57 9.4 °C 8.9 °C 1020.9 hPa North 5.6 km/h 5 km/h 97 % 0 mm
07:58 9.4 °C 8.9 °C 1020.9 hPa North 6.4 km/h 5.1 km/h 97 % 0 mm
07:58 9.4 °C 8.9 °C 1020.9 hPa North 5.6 km/h 5.1 km/h 97 % 0 mm
07:58 9.4 °C 8.9 °C 1020.9 hPa North 5.6 km/h 5.1 km/h 97 % 0 mm
07:58 9.4 °C 8.9 °C 1020.9 hPa North 5.6 km/h 5 km/h 97 % 0 mm
07:58 9.4 °C 8.9 °C 1020.9 hPa North 5.6 km/h 4.8 km/h 97 % 0 mm
07:58 9.4 °C 8.9 °C 1020.9 hPa North 5.6 km/h 4.7 km/h 97 % 0 mm
07:58 9.3 °C 8.9 °C 1020.9 hPa North 5.6 km/h 4.3 km/h 97 % 0 mm
07:58 9.3 °C 8.9 °C 1020.9 hPa North 5.6 km/h 4.2 km/h 97 % 0 mm
07:58 9.4 °C 8.9 °C 1020.9 hPa North 5.6 km/h 4.2 km/h 97 % 0 mm
07:58 9.4 °C 8.9 °C 1020.9 hPa North 5.6 km/h 4 km/h 97 % 0 mm
07:58 9.4 °C 8.9 °C 1020.9 hPa North 5.6 km/h 3.9 km/h 97 % 0 mm
07:58 9.3 °C 8.9 °C 1020.9 hPa North 5.6 km/h 3.9 km/h 97 % 0 mm
07:58 9.3 °C 8.9 °C 1020.9 hPa North 5.6 km/h 3.7 km/h 97 % 0 mm
07:58 9.4 °C 8.9 °C 1020.9 hPa North 5.6 km/h 3.7 km/h 97 % 0 mm
07:59 9.4 °C 8.9 °C 1020.9 hPa North 5.6 km/h 3.4 km/h 97 % 0 mm
07:59 9.4 °C 8.9 °C 1020.9 hPa North 5.6 km/h 3.2 km/h 97 % 0 mm
07:59 9.4 °C 8.9 °C 1020.9 hPa North 5.6 km/h 3.4 km/h 97 % 0 mm
07:59 9.4 °C 8.9 °C 1020.9 hPa North 5.6 km/h 3.2 km/h 97 % 0 mm
07:59 9.4 °C 8.9 °C 1020.9 hPa North 5.6 km/h 3.2 km/h 97 % 0 mm
07:59 9.3 °C 8.9 °C 1020.9 hPa North 5.6 km/h 3.2 km/h 97 % 0 mm
07:59 9.3 °C 8.9 °C 1020.9 hPa North 5.6 km/h 3.1 km/h 97 % 0 mm
07:59 9.3 °C 8.9 °C 1020.9 hPa North 5.6 km/h 2.9 km/h 97 % 0 mm
07:59 9.3 °C 8.9 °C 1020.9 hPa North 5.6 km/h 2.4 km/h 97 % 0 mm
07:59 9.3 °C 8.9 °C 1020.9 hPa North 5.6 km/h 1.9 km/h 97 % 0 mm
08:00 9.3 °C 8.9 °C 1020.9 hPa North 5.6 km/h 1.8 km/h 97 % 0 mm
08:00 9.3 °C 8.9 °C 1020.9 hPa North 5.6 km/h 1.6 km/h 97 % 0 mm
08:00 9.3 °C 8.9 °C 1020.9 hPa North 5.6 km/h 1.1 km/h 97 % 0 mm
08:00 9.3 °C 8.9 °C 1020.9 hPa North 5.6 km/h 0.8 km/h 97 % 0 mm
08:00 9.3 °C 8.9 °C 1020.9 hPa North 5.6 km/h 0.6 km/h 97 % 0 mm
08:00 9.3 °C 8.9 °C 1020.9 hPa North 5.6 km/h 0.6 km/h 97 % 0 mm
08:00 9.3 °C 8.9 °C 1020.9 hPa North 5.6 km/h 0.8 km/h 97 % 0 mm
08:00 9.3 °C 8.9 °C 1020.9 hPa North 5.6 km/h 1 km/h 97 % 0 mm
08:00 9.3 °C 8.9 °C 1020.9 hPa North 5.6 km/h 1.1 km/h 97 % 0 mm
08:00 9.3 °C 8.9 °C 1020.9 hPa North 5.6 km/h 1.3 km/h 97 % 0 mm
08:01 9.3 °C 8.9 °C 1020.9 hPa North 5.6 km/h 1.3 km/h 97 % 0 mm
08:01 9.3 °C 8.9 °C 1020.9 hPa North 5.6 km/h 1.4 km/h 97 % 0 mm
08:01 9.3 °C 8.9 °C 1020.9 hPa North 5.6 km/h 1.6 km/h 97 % 0 mm
08:01 9.3 °C 8.9 °C 1020.9 hPa North 5.6 km/h 1.6 km/h 97 % 0 mm
08:01 9.3 °C 8.9 °C 1020.9 hPa North 5.6 km/h 1.9 km/h 97 % 0 mm
08:01 9.3 °C 8.9 °C 1020.9 hPa North 5.6 km/h 2.1 km/h 97 % 0 mm
08:01 9.3 °C 8.9 °C 1020.9 hPa North 5.6 km/h 2.3 km/h 97 % 0 mm
08:01 9.3 °C 8.9 °C 1020.9 hPa North 5.6 km/h 2.6 km/h 97 % 0 mm
08:01 9.3 °C 8.9 °C 1020.9 hPa North 5.6 km/h 2.6 km/h 97 % 0 mm
08:01 9.3 °C 8.9 °C 1020.9 hPa North 5.6 km/h 2.6 km/h 97 % 0 mm
08:01 9.3 °C 8.9 °C 1020.9 hPa North 5.6 km/h 2.6 km/h 97 % 0 mm
08:01 9.3 °C 8.9 °C 1020.9 hPa North 5.6 km/h 2.4 km/h 97 % 0 mm
08:01 9.3 °C 8.9 °C 1020.9 hPa North 5.6 km/h 2.4 km/h 97 % 0 mm
08:01 9.3 °C 8.9 °C 1020.9 hPa North 5.6 km/h 2.4 km/h 97 % 0 mm
08:02 9.3 °C 8.9 °C 1020.9 hPa North 3.7 km/h 2.6 km/h 97 % 0 mm
08:02 9.3 °C 8.9 °C 1020.9 hPa North 3.7 km/h 2.7 km/h 97 % 0 mm
08:02 9.3 °C 8.9 °C 1020.9 hPa North 3.7 km/h 2.9 km/h 97 % 0 mm
08:02 9.3 °C 8.9 °C 1020.9 hPa North 3.7 km/h 2.9 km/h 97 % 0 mm
08:02 9.3 °C 8.9 °C 1020.9 hPa North 3.7 km/h 2.9 km/h 97 % 0 mm
08:02 9.3 °C 8.9 °C 1020.9 hPa North 3.7 km/h 3.1 km/h 97 % 0 mm
08:02 9.3 °C 8.9 °C 1020.9 hPa North 3.7 km/h 2.9 km/h 97 % 0 mm
08:02 9.3 °C 8.9 °C 1020.9 hPa North 3.7 km/h 2.9 km/h 97 % 0 mm
08:02 9.3 °C 8.9 °C 1020.9 hPa North 3.7 km/h 2.9 km/h 97 % 0 mm
08:03 9.3 °C 8.9 °C 1020.9 hPa North 3.7 km/h 2.9 km/h 97 % 0 mm
08:03 9.3 °C 8.9 °C 1020.9 hPa North 3.7 km/h 2.9 km/h 97 % 0 mm
08:03 9.3 °C 8.9 °C 1020.9 hPa North 3.7 km/h 2.7 km/h 97 % 0 mm
08:03 9.3 °C 8.9 °C 1020.9 hPa North 3.7 km/h 2.6 km/h 97 % 0 mm
08:03 9.3 °C 8.9 °C 1020.9 hPa North 3.7 km/h 2.6 km/h 97 % 0 mm
08:03 9.3 °C 8.9 °C 1020.9 hPa North 3.7 km/h 2.4 km/h 97 % 0 mm
08:03 9.3 °C 8.9 °C 1020.9 hPa North 3.7 km/h 2.4 km/h 97 % 0 mm
08:03 9.3 °C 8.9 °C 1020.9 hPa North 3.7 km/h 2.3 km/h 97 % 0 mm
08:03 9.3 °C 8.9 °C 1020.9 hPa North 3.7 km/h 1.9 km/h 97 % 0 mm
08:03 9.3 °C 8.9 °C 1020.9 hPa North 3.7 km/h 1.9 km/h 97 % 0 mm
08:03 9.3 °C 8.9 °C 1020.9 hPa North 3.7 km/h 1.8 km/h 97 % 0 mm
08:03 9.3 °C 8.9 °C 1020.9 hPa North 3.7 km/h 1.4 km/h 97 % 0 mm
08:04 9.3 °C 8.9 °C 1020.9 hPa North 3.7 km/h 1.3 km/h 97 % 0 mm
08:04 9.3 °C 8.9 °C 1020.9 hPa North 3.7 km/h 1.1 km/h 97 % 0 mm
08:04 9.3 °C 8.9 °C 1020.9 hPa North 3.7 km/h 0.8 km/h 97 % 0 mm
08:04 9.3 °C 8.9 °C 1020.9 hPa North 3.7 km/h 0.8 km/h 97 % 0 mm
08:04 9.3 °C 8.9 °C 1020.9 hPa North 3.7 km/h 0.5 km/h 97 % 0 mm
08:04 9.3 °C 8.9 °C 1020.9 hPa North 3.7 km/h 0.5 km/h 97 % 0 mm
08:04 9.3 °C 8.9 °C 1020.9 hPa North 3.7 km/h 0.3 km/h 97 % 0 mm
08:04 9.3 °C 8.9 °C 1020.9 hPa North 3.7 km/h 0.2 km/h 97 % 0 mm
08:04 9.3 °C 8.9 °C 1020.9 hPa North 3.7 km/h   97 % 0 mm
08:04 9.3 °C 8.9 °C 1020.9 hPa North 3.7 km/h   97 % 0 mm
08:04 9.3 °C 8.8 °C 1020.9 hPa North 3.7 km/h   97 % 0 mm
08:05 9.3 °C 8.8 °C 1020.9 hPa Calm     97 % 0 mm
08:05 9.3 °C 8.8 °C 1020.9 hPa Calm     97 % 0 mm
08:05 9.3 °C 8.8 °C 1020.9 hPa Calm     97 % 0 mm
08:05 9.3 °C 8.8 °C 1020.9 hPa Calm     97 % 0 mm
08:05 9.3 °C 8.9 °C 1020.9 hPa Calm     97 % 0 mm
08:05 9.3 °C 8.9 °C 1020.9 hPa Calm     97 % 0 mm
08:05 9.3 °C 8.9 °C 1020.9 hPa Calm     97 % 0 mm
08:05 9.3 °C 8.8 °C 1020.9 hPa Calm     97 % 0 mm
08:05 9.3 °C 8.8 °C 1020.9 hPa Calm     97 % 0 mm
08:05 9.3 °C 8.9 °C 1020.9 hPa Calm     97 % 0 mm
08:05 9.3 °C 8.8 °C 1020.9 hPa Calm     97 % 0 mm
08:06 9.3 °C 8.8 °C 1020.9 hPa Calm     97 % 0 mm
08:06 9.3 °C 8.8 °C 1020.9 hPa Calm     97 % 0 mm
08:06 9.3 °C 8.8 °C 1020.9 hPa Calm     97 % 0 mm
08:06 9.3 °C 8.8 °C 1020.9 hPa Calm     97 % 0 mm
08:06 9.3 °C 8.8 °C 1020.9 hPa Calm     97 % 0 mm
08:06 9.3 °C 8.8 °C 1020.9 hPa Calm     97 % 0 mm
08:06 9.3 °C 8.8 °C 1020.9 hPa Calm     97 % 0 mm
08:06 9.3 °C 8.8 °C 1020.9 hPa Calm     97 % 0 mm
08:06 9.3 °C 8.8 °C 1020.9 hPa Calm     97 % 0 mm
08:06 9.3 °C 8.8 °C 1020.9 hPa Calm     97 % 0 mm
08:06 9.3 °C 8.8 °C 1020.9 hPa Calm     97 % 0 mm
08:07 9.3 °C 8.8 °C 1020.9 hPa Calm     97 % 0 mm
08:07 9.3 °C 8.8 °C 1020.9 hPa Calm     97 % 0 mm
08:07 9.3 °C 8.8 °C 1020.9 hPa Calm     97 % 0 mm
08:07 9.3 °C 8.8 °C 1020.9 hPa Calm     97 % 0 mm
08:07 9.3 °C 8.8 °C 1020.9 hPa Calm     97 % 0 mm
08:07 9.3 °C 8.8 °C 1020.9 hPa Calm     97 % 0 mm
08:07 9.3 °C 8.8 °C 1020.9 hPa Calm     97 % 0 mm
08:07 9.3 °C 8.8 °C 1020.9 hPa Calm     97 % 0 mm
08:07 9.3 °C 8.8 °C 1020.9 hPa Calm     97 % 0 mm
08:07 9.3 °C 8.8 °C 1020.9 hPa Calm     97 % 0 mm
08:07 9.3 °C 8.8 °C 1020.9 hPa Calm     97 % 0 mm
08:07 9.3 °C 8.8 °C 1020.9 hPa Calm     97 % 0 mm
08:08 9.3 °C 8.8 °C 1020.9 hPa Calm     97 % 0 mm
08:08 9.3 °C 8.8 °C 1020.9 hPa Calm     97 % 0 mm
08:08 9.3 °C 8.8 °C 1020.9 hPa Calm     97 % 0 mm
08:08 9.3 °C 8.8 °C 1020.9 hPa Calm     97 % 0 mm
08:08 9.3 °C 8.8 °C 1020.9 hPa Calm     97 % 0 mm
08:08 9.3 °C 8.8 °C 1020.9 hPa Calm     97 % 0 mm
08:08 9.3 °C 8.8 °C 1020.9 hPa Calm     97 % 0 mm
08:08 9.3 °C 8.8 °C 1020.9 hPa Calm     97 % 0 mm
08:08 9.3 °C 8.8 °C 1020.9 hPa Calm     97 % 0 mm
08:08 9.3 °C 8.8 °C 1020.9 hPa Calm     97 % 0 mm
08:08 9.3 °C 8.8 °C 1020.9 hPa Calm     97 % 0 mm
08:08 9.3 °C 8.8 °C 1020.9 hPa Calm     97 % 0 mm
08:08 9.3 °C 8.8 °C 1020.9 hPa Calm     97 % 0 mm
08:08 9.3 °C 8.8 °C 1020.9 hPa Calm     97 % 0 mm
08:09 9.3 °C 8.8 °C 1020.9 hPa Calm     97 % 0 mm
08:09 9.3 °C 8.8 °C 1020.9 hPa Calm     97 % 0 mm
08:09 9.3 °C 8.8 °C 1020.9 hPa Calm     97 % 0 mm
08:09 9.3 °C 8.8 °C 1020.9 hPa Calm     97 % 0 mm
08:09 9.3 °C 8.8 °C 1020.9 hPa Calm     97 % 0 mm
08:09 9.3 °C 8.8 °C 1020.9 hPa Calm     97 % 0 mm
08:09 9.3 °C 8.8 °C 1020.9 hPa Calm     97 % 0 mm
08:09 9.3 °C 8.8 °C 1020.9 hPa Calm     97 % 0 mm
08:09 9.3 °C 8.8 °C 1020.9 hPa Calm     97 % 0 mm
08:09 9.3 °C 8.8 °C 1020.9 hPa Calm     97 % 0 mm
08:09 9.3 °C 8.8 °C 1020.9 hPa Calm     97 % 0 mm
08:09 9.3 °C 8.8 °C 1020.9 hPa Calm     97 % 0 mm
08:10 9.3 °C 8.8 °C 1020.9 hPa Calm     97 % 0 mm
08:10 9.3 °C 8.8 °C 1020.9 hPa Calm     97 % 0 mm
08:10 9.3 °C 8.8 °C 1020.9 hPa Calm     97 % 0 mm
08:10 9.3 °C 8.8 °C 1020.9 hPa Calm     97 % 0 mm
08:10 9.3 °C 8.8 °C 1020.9 hPa Calm     97 % 0 mm
08:10 9.3 °C 8.8 °C 1020.9 hPa Calm     97 % 0 mm
08:10 9.3 °C 8.8 °C 1020.9 hPa Calm     97 % 0 mm
08:10 9.3 °C 8.8 °C 1020.9 hPa Calm     97 % 0 mm
08:10 9.3 °C 8.8 °C 1020.9 hPa Calm     97 % 0 mm
08:10 9.3 °C 8.8 °C 1020.9 hPa Calm     97 % 0 mm
08:10 9.3 °C 8.8 °C 1020.9 hPa Calm     97 % 0 mm
08:11 9.3 °C 8.8 °C 1020.9 hPa Calm     97 % 0 mm
08:11 9.3 °C 8.8 °C 1020.9 hPa Calm     97 % 0 mm
08:11 9.3 °C 8.8 °C 1020.9 hPa Calm     97 % 0 mm
08:11 9.3 °C 8.8 °C 1020.9 hPa Calm     97 % 0 mm
08:11 9.3 °C 8.8 °C 1020.9 hPa Calm     97 % 0 mm
08:11 9.3 °C 8.8 °C 1020.9 hPa Calm     97 % 0 mm
08:11 9.3 °C 8.8 °C 1020.9 hPa Calm     97 % 0 mm
08:11 9.3 °C 8.8 °C 1020.9 hPa Calm     97 % 0 mm
08:11 9.3 °C 8.8 °C 1020.9 hPa Calm     97 % 0 mm
08:11 9.3 °C 8.8 °C 1020.9 hPa Calm     97 % 0 mm
08:11 9.3 °C 8.8 °C 1020.9 hPa Calm     97 % 0 mm
08:11 9.3 °C 8.8 °C 1020.9 hPa Calm     97 % 0 mm
08:11 9.3 °C 8.8 °C 1020.9 hPa Calm     97 % 0 mm
08:11 9.3 °C 8.8 °C 1020.9 hPa Calm     97 % 0 mm
08:11 9.3 °C 8.8 °C 1020.9 hPa Calm     97 % 0 mm
08:12 9.3 °C 8.8 °C 1020.9 hPa Calm     97 % 0 mm
08:12 9.3 °C 8.8 °C 1020.9 hPa Calm     97 % 0 mm
08:12 9.3 °C 8.8 °C 1020.9 hPa Calm     97 % 0 mm
08:12 9.3 °C 8.8 °C 1020.9 hPa Calm     97 % 0 mm
08:12 9.3 °C 8.8 °C 1020.9 hPa Calm     97 % 0 mm
08:12 9.3 °C 8.8 °C 1020.9 hPa Calm     97 % 0 mm
08:12 9.3 °C 8.8 °C 1020.9 hPa Calm     97 % 0 mm
08:12 9.3 °C 8.8 °C 1020.9 hPa Calm     97 % 0 mm
08:12 9.3 °C 8.8 °C 1020.9 hPa Calm     97 % 0 mm
08:12 9.3 °C 8.8 °C 1020.9 hPa Calm     97 % 0 mm
08:12 9.3 °C 8.8 °C 1020.9 hPa Calm     97 % 0 mm
08:12 9.3 °C 8.8 °C 1020.9 hPa Calm     97 % 0 mm
08:12 9.3 °C 8.8 °C 1020.9 hPa Calm     97 % 0 mm
08:12 9.3 °C 8.8 °C 1020.9 hPa Calm     97 % 0 mm
08:13 9.3 °C 8.8 °C 1020.9 hPa Calm     97 % 0 mm
08:13 9.3 °C 8.8 °C 1020.9 hPa Calm     97 % 0 mm
08:13 9.3 °C 8.8 °C 1020.9 hPa Calm     97 % 0 mm
08:13 9.3 °C 8.8 °C 1020.9 hPa North 1.6 km/h 0.3 km/h 97 % 0 mm
08:13 9.3 °C 8.8 °C 1020.9 hPa North 1.6 km/h 0.5 km/h 97 % 0 mm
08:13 9.3 °C 8.8 °C 1020.9 hPa North 1.6 km/h 0.5 km/h 97 % 0 mm
08:13 9.3 °C 8.8 °C 1020.9 hPa North 1.6 km/h 0.6 km/h 97 % 0 mm
08:13 9.3 °C 8.8 °C 1020.9 hPa North 3.2 km/h 0.8 km/h 97 % 0 mm
08:14 9.3 °C 8.8 °C 1020.9 hPa North 3.7 km/h 1 km/h 97 % 0 mm
08:14 9.3 °C 8.8 °C 1020.9 hPa North 3.7 km/h 1.1 km/h 97 % 0 mm
08:14 9.3 °C 8.8 °C 1020.9 hPa North 3.7 km/h 1.3 km/h 97 % 0 mm
08:14 9.3 °C 8.8 °C 1020.9 hPa North 3.7 km/h 1.3 km/h 97 % 0 mm
08:14 9.3 °C 8.8 °C 1020.9 hPa North 3.7 km/h 1.3 km/h 97 % 0 mm
08:14 9.3 °C 8.8 °C 1020.9 hPa North 3.7 km/h 1.1 km/h 97 % 0 mm
08:14 9.3 °C 8.8 °C 1020.9 hPa North 3.7 km/h 1.1 km/h 97 % 0 mm
08:14 9.3 °C 8.8 °C 1020.9 hPa North 3.7 km/h 1 km/h 97 % 0 mm
08:14 9.3 °C 8.8 °C 1020.9 hPa North 3.7 km/h 1 km/h 97 % 0 mm
08:14 9.3 °C 8.8 °C 1020.9 hPa North 3.7 km/h 0.8 km/h 97 % 0 mm
08:14 9.3 °C 8.8 °C 1020.9 hPa North 3.7 km/h 0.8 km/h 97 % 0 mm
08:14 9.3 °C 8.8 °C 1020.9 hPa North 3.7 km/h 0.6 km/h 97 % 0 mm
08:14 9.3 °C 8.8 °C 1020.9 hPa North 3.7 km/h 0.5 km/h 97 % 0 mm
08:15 9.3 °C 8.8 °C 1020.9 hPa North 1.6 km/h 3.2 km/h 97 % 0 mm
08:15 9.3 °C 8.8 °C 1020.9 hPa North 3.7 km/h 0.5 km/h 97 % 0 mm
08:15 9.3 °C 8.8 °C 1020.9 hPa North 3.7 km/h 0.3 km/h 97 % 0 mm
08:15 9.3 °C 8.8 °C 1020.9 hPa North 3.7 km/h 0.3 km/h 97 % 0 mm
08:15 9.3 °C 8.8 °C 1020.9 hPa North 3.7 km/h 0.3 km/h 97 % 0 mm
08:15 9.3 °C 8.8 °C 1020.9 hPa North 3.7 km/h 0.3 km/h 97 % 0 mm
08:15 9.3 °C 8.8 °C 1020.9 hPa North 3.7 km/h 0.3 km/h 97 % 0 mm
08:15 9.3 °C 8.8 °C 1020.9 hPa North 3.7 km/h 0.3 km/h 97 % 0 mm
08:15 9.3 °C 8.8 °C 1020.9 hPa North 3.7 km/h 0.3 km/h 97 % 0 mm
08:15 9.3 °C 8.8 °C 1020.9 hPa North 3.7 km/h 0.3 km/h 97 % 0 mm
08:15 9.3 °C 8.8 °C 1020.9 hPa North 3.7 km/h 0.3 km/h 97 % 0 mm
08:16 9.3 °C 8.8 °C 1020.9 hPa North 1.9 km/h 0.2 km/h 97 % 0 mm
08:16 9.3 °C 8.8 °C 1020.9 hPa North 1.9 km/h   97 % 0 mm
08:16 9.3 °C 8.8 °C 1020.9 hPa North 1.9 km/h   97 % 0 mm
08:16 9.3 °C 8.8 °C 1020.9 hPa North 1.9 km/h   97 % 0 mm
08:16 9.3 °C 8.8 °C 1020.9 hPa North 1.9 km/h   97 % 0 mm
08:16 9.3 °C 8.8 °C 1020.9 hPa North 1.9 km/h   97 % 0 mm
08:16 9.3 °C 8.8 °C 1020.9 hPa North 1.9 km/h   97 % 0 mm
08:16 9.3 °C 8.8 °C 1020.9 hPa North 1.9 km/h   97 % 0 mm
08:16 9.3 °C 8.8 °C 1020.9 hPa North 1.9 km/h   97 % 0 mm
08:16 9.3 °C 8.8 °C 1020.9 hPa North 1.9 km/h   97 % 0 mm
08:16 9.3 °C 8.8 °C 1020.9 hPa North 1.9 km/h   97 % 0 mm
08:16 9.3 °C 8.8 °C 1020.9 hPa North 1.9 km/h   97 % 0 mm
08:16 9.3 °C 8.8 °C 1020.9 hPa North 1.9 km/h   97 % 0 mm
08:17 9.3 °C 8.8 °C 1020.9 hPa Calm     97 % 0 mm
08:17 9.3 °C 8.8 °C 1020.9 hPa Calm     97 % 0 mm
08:17 9.3 °C 8.8 °C 1020.9 hPa Calm     97 % 0 mm
08:17 9.3 °C 8.8 °C 1020.9 hPa Calm     97 % 0 mm
08:17 9.3 °C 8.8 °C 1020.9 hPa Calm     97 % 0 mm
08:17 9.3 °C 8.8 °C 1020.9 hPa Calm     97 % 0 mm
08:17 9.3 °C 8.8 °C 1020.9 hPa Calm     97 % 0 mm
08:17 9.3 °C 8.8 °C 1020.9 hPa Calm     97 % 0 mm
08:17 9.3 °C 8.8 °C 1020.9 hPa Calm     97 % 0 mm
08:17 9.3 °C 8.8 °C 1020.9 hPa Calm     97 % 0 mm
08:18 9.3 °C 8.8 °C 1020.9 hPa Calm     97 % 0 mm
08:18 9.3 °C 8.8 °C 1020.9 hPa Calm     97 % 0 mm
08:18 9.3 °C 8.8 °C 1020.9 hPa Calm     97 % 0 mm
08:18 9.3 °C 8.8 °C 1020.9 hPa Calm     97 % 0 mm
08:18 9.3 °C 8.8 °C 1020.9 hPa Calm     97 % 0 mm
08:18 9.3 °C 8.8 °C 1020.9 hPa Calm     97 % 0 mm
08:18 9.3 °C 8.8 °C 1020.9 hPa Calm     97 % 0 mm
08:18 9.3 °C 8.8 °C 1020.9 hPa Calm     97 % 0 mm
08:18 9.3 °C 8.8 °C 1020.9 hPa Calm     97 % 0 mm
08:18 9.3 °C 8.8 °C 1020.9 hPa Calm     97 % 0 mm
08:18 9.3 °C 8.8 °C 1020.9 hPa Calm     97 % 0 mm
08:18 9.3 °C 8.8 °C 1020.9 hPa Calm     97 % 0 mm
08:18 9.3 °C 8.8 °C 1020.9 hPa Calm     97 % 0 mm
08:19 9.3 °C 8.8 °C 1020.9 hPa Calm     97 % 0 mm
08:19 9.3 °C 8.8 °C 1020.9 hPa Calm     97 % 0 mm
08:19 9.3 °C 8.8 °C 1020.9 hPa Calm     97 % 0 mm
08:19 9.3 °C 8.8 °C 1020.9 hPa Calm     97 % 0 mm
08:19 9.3 °C 8.8 °C 1020.9 hPa Calm     97 % 0 mm
08:19 9.3 °C 8.8 °C 1020.9 hPa Calm     97 % 0 mm
08:19 9.3 °C 8.8 °C 1020.9 hPa Calm     97 % 0 mm
08:19 9.3 °C 8.8 °C 1020.9 hPa Calm     97 % 0 mm
08:19 9.3 °C 8.8 °C 1020.9 hPa Calm     97 % 0 mm
08:19 9.3 °C 8.8 °C 1020.9 hPa Calm     97 % 0 mm
08:19 9.3 °C 8.8 °C 1020.9 hPa Calm     97 % 0 mm
08:20 9.3 °C 8.8 °C 1020.9 hPa Calm   1.6 km/h 97 % 0 mm
08:20 9.3 °C 8.8 °C 1020.9 hPa Calm     97 % 0 mm
08:20 9.3 °C 8.8 °C 1020.9 hPa Calm     97 % 0 mm
08:20 9.3 °C 8.8 °C 1020.9 hPa Calm     97 % 0 mm
08:20 9.3 °C 8.8 °C 1020.9 hPa Calm     97 % 0 mm
08:20 9.3 °C 8.8 °C 1020.9 hPa Calm     97 % 0 mm
08:20 9.3 °C 8.8 °C 1020.9 hPa Calm     97 % 0 mm
08:20 9.3 °C 8.8 °C 1020.9 hPa Calm     97 % 0 mm
08:20 9.2 °C 8.8 °C 1020.9 hPa Calm     97 % 0 mm
08:20 9.3 °C 8.8 °C 1020.9 hPa Calm     97 % 0 mm
08:20 9.3 °C 8.8 °C 1020.9 hPa Calm     97 % 0 mm
08:21 9.3 °C 8.8 °C 1020.9 hPa Calm     97 % 0 mm
08:21 9.3 °C 8.8 °C 1020.9 hPa Calm     97 % 0 mm
08:21 9.3 °C 8.8 °C 1020.9 hPa Calm     97 % 0 mm
08:21 9.2 °C 8.8 °C 1020.9 hPa Calm     97 % 0 mm
08:21 9.2 °C 8.8 °C 1020.9 hPa Calm     97 % 0 mm
08:21 9.3 °C 8.8 °C 1020.9 hPa Calm     97 % 0 mm
08:21 9.3 °C 8.8 °C 1020.9 hPa Calm     97 % 0 mm
08:21 9.3 °C 8.8 °C 1020.9 hPa Calm     97 % 0 mm
08:21 9.3 °C 8.8 °C 1020.9 hPa Calm     97 % 0 mm
08:21 9.3 °C 8.8 °C 1020.9 hPa Calm     97 % 0 mm
08:21 9.2 °C 8.8 °C 1020.9 hPa Calm     97 % 0 mm
08:21 9.2 °C 8.8 °C 1020.9 hPa Calm     97 % 0 mm
08:22 9.3 °C 8.8 °C 1020.9 hPa Calm     97 % 0 mm
08:22 9.3 °C 8.8 °C 1020.9 hPa Calm     97 % 0 mm
08:22 9.3 °C 8.8 °C 1020.9 hPa Calm     97 % 0 mm
08:22 9.3 °C 8.8 °C 1020.9 hPa Calm     97 % 0 mm
08:22 9.3 °C 8.8 °C 1020.9 hPa Calm     97 % 0 mm
08:22 9.3 °C 8.8 °C 1020.9 hPa Calm     97 % 0 mm
08:22 9.3 °C 8.8 °C 1020.9 hPa Calm     97 % 0 mm
08:22 9.2 °C 8.8 °C 1020.9 hPa Calm     97 % 0 mm
08:22 9.3 °C 8.8 °C 1020.9 hPa Calm     97 % 0 mm
08:22 9.2 °C 8.8 °C 1020.9 hPa Calm     97 % 0 mm
08:22 9.2 °C 8.8 °C 1020.9 hPa Calm     97 % 0 mm
08:23 9.2 °C 8.8 °C 1020.9 hPa Calm     97 % 0 mm
08:23 9.3 °C 8.8 °C 1021.2 hPa Calm     97 % 0 mm
08:23 9.3 °C 8.8 °C 1021.2 hPa Calm     97 % 0 mm
08:23 9.2 °C 8.8 °C 1021.2 hPa Calm     97 % 0 mm
08:23 9.2 °C 8.8 °C 1021.2 hPa Calm     97 % 0 mm
08:23 9.3 °C 8.8 °C 1021.2 hPa Calm     97 % 0 mm
08:23 9.3 °C 8.8 °C 1021.2 hPa Calm     97 % 0 mm
08:23 9.3 °C 8.8 °C 1021.2 hPa Calm     97 % 0 mm
08:23 9.2 °C 8.8 °C 1020.9 hPa Calm     97 % 0 mm
08:23 9.2 °C 8.8 °C 1020.9 hPa Calm     97 % 0 mm
08:23 9.2 °C 8.8 °C 1020.9 hPa Calm     97 % 0 mm
08:24 9.2 °C 8.8 °C 1020.9 hPa Calm     97 % 0 mm
08:24 9.2 °C 8.8 °C 1020.9 hPa Calm     97 % 0 mm
08:24 9.2 °C 8.8 °C 1020.9 hPa Calm     97 % 0 mm
08:24 9.3 °C 8.8 °C 1020.9 hPa Calm     97 % 0 mm
08:24 9.3 °C 8.8 °C 1020.9 hPa Calm     97 % 0 mm
08:24 9.3 °C 8.8 °C 1020.9 hPa Calm     97 % 0 mm
08:24 9.3 °C 8.8 °C 1020.9 hPa Calm     97 % 0 mm
08:24 9.3 °C 8.8 °C 1020.9 hPa Calm     97 % 0 mm
08:24 9.2 °C 8.8 °C 1020.9 hPa Calm     97 % 0 mm
08:24 9.2 °C 8.8 °C 1020.9 hPa Calm     97 % 0 mm
08:24 9.2 °C 8.8 °C 1021.2 hPa Calm     97 % 0 mm
08:24 9.2 °C 8.8 °C 1021.2 hPa Calm     97 % 0 mm
08:24 9.2 °C 8.8 °C 1021.2 hPa Calm     97 % 0 mm
08:25 9.2 °C 8.8 °C 1020.9 hPa Calm     97 % 0 mm
08:25 9.2 °C 8.8 °C 1021.2 hPa Calm     97 % 0 mm
08:25 9.3 °C 8.8 °C 1021.2 hPa Calm     97 % 0 mm
08:25 9.3 °C 8.8 °C 1021.2 hPa Calm     97 % 0 mm
08:25 9.2 °C 8.8 °C 1021.2 hPa Calm     97 % 0 mm
08:25 9.2 °C 8.8 °C 1021.2 hPa Calm     97 % 0 mm
08:25 9.2 °C 8.8 °C 1021.2 hPa Calm     97 % 0 mm
08:25 9.2 °C 8.8 °C 1021.2 hPa Calm     97 % 0 mm
08:25 9.2 °C 8.8 °C 1021.2 hPa Calm     97 % 0 mm
08:25 9.2 °C 8.8 °C 1021.2 hPa Calm     97 % 0 mm
08:25 9.2 °C 8.8 °C 1021.2 hPa Calm     97 % 0 mm
08:25 9.2 °C 8.8 °C 1021.2 hPa Calm     97 % 0 mm
08:25 9.2 °C 8.8 °C 1021.2 hPa Calm     97 % 0 mm
08:26 9.2 °C 8.8 °C 1021.2 hPa Calm     97 % 0 mm
08:26 9.2 °C 8.8 °C 1021.2 hPa Calm     97 % 0 mm
08:26 9.2 °C 8.8 °C 1021.2 hPa Calm     97 % 0 mm
08:26 9.2 °C 8.8 °C 1021.2 hPa Calm     97 % 0 mm
08:26 9.2 °C 8.8 °C 1021.2 hPa Calm     97 % 0 mm
08:26 9.2 °C 8.8 °C 1021.2 hPa Calm     97 % 0 mm
08:26 9.2 °C 8.8 °C 1021.2 hPa Calm     97 % 0 mm
08:26 9.2 °C 8.8 °C 1021.2 hPa Calm     97 % 0 mm
08:26 9.2 °C 8.8 °C 1021.2 hPa Calm     97 % 0 mm
08:26 9.2 °C 8.8 °C 1021.2 hPa Calm     97 % 0 mm
08:26 9.2 °C 8.8 °C 1021.2 hPa Calm     97 % 0 mm
08:26 9.2 °C 8.8 °C 1021.2 hPa Calm     97 % 0 mm
08:26 9.3 °C 8.8 °C 1021.2 hPa Calm     97 % 0 mm
08:27 9.3 °C 8.8 °C 1021.2 hPa Calm     97 % 0 mm
08:27 9.3 °C 8.8 °C 1021.2 hPa Calm     97 % 0 mm
08:27 9.3 °C 8.8 °C 1021.2 hPa Calm     97 % 0 mm
08:27 9.3 °C 8.8 °C 1021.2 hPa Calm     97 % 0 mm
08:27 9.3 °C 8.8 °C 1021.2 hPa Calm     97 % 0 mm
08:27 9.3 °C 8.8 °C 1021.2 hPa Calm     97 % 0 mm
08:27 9.3 °C 8.8 °C 1021.2 hPa Calm     97 % 0 mm
08:27 9.3 °C 8.8 °C 1021.2 hPa Calm     97 % 0 mm
08:27 9.3 °C 8.8 °C 1021.2 hPa Calm     97 % 0 mm
08:27 9.3 °C 8.8 °C 1021.2 hPa Calm     97 % 0 mm
08:27 9.2 °C 8.8 °C 1021.2 hPa Calm     97 % 0 mm
08:27 9.2 °C 8.8 °C 1021.2 hPa Calm     97 % 0 mm
08:28 9.2 °C 8.8 °C 1021.2 hPa Calm     97 % 0 mm
08:28 9.2 °C 8.8 °C 1021.2 hPa Calm     97 % 0 mm
08:28 9.3 °C 8.8 °C 1021.2 hPa Calm     97 % 0 mm
08:28 9.2 °C 8.8 °C 1021.2 hPa Calm     97 % 0 mm
08:28 9.2 °C 8.8 °C 1021.2 hPa Calm     97 % 0 mm
08:28 9.3 °C 8.8 °C 1021.2 hPa Calm     97 % 0 mm
08:28 9.3 °C 8.8 °C 1021.2 hPa Calm     97 % 0 mm
08:28 9.3 °C 8.8 °C 1021.2 hPa Calm     97 % 0 mm
08:28 9.3 °C 8.8 °C 1021.2 hPa Calm     97 % 0 mm
08:28 9.3 °C 8.8 °C 1021.2 hPa Calm     97 % 0 mm
08:28 9.3 °C 8.8 °C 1021.2 hPa Calm     97 % 0 mm
08:29 9.2 °C 8.8 °C 1021.2 hPa Calm     97 % 0 mm
08:29 9.2 °C 8.8 °C 1021.2 hPa Calm     97 % 0 mm
08:29 9.3 °C 8.8 °C 1021.2 hPa Calm     97 % 0 mm
08:29 9.3 °C 8.8 °C 1021.2 hPa Calm     97 % 0 mm
08:29 9.3 °C 8.8 °C 1021.2 hPa Calm     97 % 0 mm
08:29 9.3 °C 8.8 °C 1021.2 hPa Calm     97 % 0 mm
08:29 9.3 °C 8.8 °C 1021.2 hPa Calm     97 % 0 mm
08:29 9.3 °C 8.8 °C 1021.2 hPa Calm     97 % 0 mm
08:29 9.3 °C 8.8 °C 1021.2 hPa Calm     97 % 0 mm
08:29 9.3 °C 8.8 °C 1021.2 hPa Calm     97 % 0 mm
08:30 9.2 °C 8.8 °C 1021.2 hPa Calm     97 % 0 mm
08:30 9.3 °C 8.8 °C 1021.2 hPa Calm     97 % 0 mm
08:30 9.3 °C 8.8 °C 1021.2 hPa Calm     97 % 0 mm
08:30 9.3 °C 8.8 °C 1021.2 hPa Calm     97 % 0 mm
08:30 9.3 °C 8.8 °C 1021.2 hPa Calm     97 % 0 mm
08:30 9.3 °C 8.8 °C 1021.2 hPa Calm     97 % 0 mm
08:30 9.3 °C 8.8 °C 1021.2 hPa Calm     97 % 0 mm
08:30 9.3 °C 8.8 °C 1021.2 hPa Calm     97 % 0 mm
08:30 9.3 °C 8.8 °C 1021.2 hPa Calm     97 % 0 mm
08:30 9.3 °C 8.8 °C 1021.2 hPa Calm     97 % 0 mm
08:30 9.3 °C 8.8 °C 1021.2 hPa Calm     97 % 0 mm
08:30 9.3 °C 8.8 °C 1021.2 hPa Calm     97 % 0 mm
08:30 9.3 °C 8.8 °C 1021.2 hPa Calm     97 % 0 mm
08:30 9.3 °C 8.8 °C 1021.2 hPa Calm     97 % 0 mm
08:31 9.3 °C 8.8 °C 1021.2 hPa Calm     97 % 0 mm
08:31 9.3 °C 8.8 °C 1021.2 hPa Calm     97 % 0 mm
08:31 9.3 °C 8.8 °C 1021.2 hPa Calm     97 % 0 mm
08:31 9.3 °C 8.8 °C 1021.2 hPa Calm     97 % 0 mm
08:31 9.3 °C 8.8 °C 1021.2 hPa Calm     97 % 0 mm
08:31 9.3 °C 8.8 °C 1021.2 hPa Calm     97 % 0 mm
08:31 9.3 °C 8.8 °C 1021.2 hPa Calm     97 % 0 mm
08:31 9.3 °C 8.8 °C 1021.2 hPa Calm     97 % 0 mm
08:31 9.3 °C 8.8 °C 1021.2 hPa Calm     97 % 0 mm
08:31 9.3 °C 8.8 °C 1021.2 hPa Calm     97 % 0 mm
08:31 9.3 °C 8.8 °C 1021.2 hPa Calm     97 % 0 mm
08:31 9.3 °C 8.8 °C 1021.2 hPa Calm     97 % 0 mm
08:31 9.3 °C 8.8 °C 1021.2 hPa Calm     97 % 0 mm
08:32 9.3 °C 8.8 °C 1021.2 hPa Calm     97 % 0 mm
08:32 9.3 °C 8.8 °C 1021.2 hPa Calm     97 % 0 mm
08:32 9.3 °C 8.8 °C 1021.2 hPa Calm     97 % 0 mm
08:32 9.3 °C 8.8 °C 1021.2 hPa Calm     97 % 0 mm
08:32 9.3 °C 8.8 °C 1021.2 hPa Calm     97 % 0 mm
08:32 9.3 °C 8.8 °C 1021.2 hPa Calm     97 % 0 mm
08:32 9.3 °C 8.8 °C 1021.2 hPa Calm     97 % 0 mm
08:32 9.3 °C 8.8 °C 1021.2 hPa Calm     97 % 0 mm
08:32 9.3 °C 8.8 °C 1021.2 hPa Calm     97 % 0 mm
08:32 9.3 °C 8.8 °C 1021.2 hPa Calm     97 % 0 mm
08:32 9.3 °C 8.8 °C 1021.2 hPa Calm     97 % 0 mm
08:33 9.3 °C 8.8 °C 1021.2 hPa Calm     97 % 0 mm
08:33 9.3 °C 8.8 °C 1021.2 hPa Calm     97 % 0 mm
08:33 9.3 °C 8.8 °C 1021.2 hPa Calm     97 % 0 mm
08:33 9.3 °C 8.8 °C 1021.2 hPa Calm     97 % 0 mm
08:33 9.3 °C 8.8 °C 1021.2 hPa Calm     97 % 0 mm
08:33 9.3 °C 8.8 °C 1021.2 hPa Calm     97 % 0 mm
08:33 9.3 °C 8.8 °C 1021.2 hPa Calm     97 % 0 mm
08:33 9.3 °C 8.8 °C 1021.2 hPa Calm     97 % 0 mm
08:33 9.3 °C 8.8 °C 1021.2 hPa Calm     97 % 0 mm
08:33 9.3 °C 8.8 °C 1021.2 hPa Calm     97 % 0 mm
08:33 9.3 °C 8.8 °C 1021.2 hPa Calm     97 % 0 mm
08:34 9.3 °C 8.8 °C 1021.2 hPa Calm     97 % 0 mm
08:34 9.3 °C 8.8 °C 1021.2 hPa Calm     97 % 0 mm
08:34 9.3 °C 8.8 °C 1021.2 hPa Calm     97 % 0 mm
08:34 9.3 °C 8.8 °C 1021.2 hPa Calm     97 % 0 mm
08:34 9.3 °C 8.8 °C 1021.2 hPa Calm     97 % 0 mm
08:34 9.3 °C 8.8 °C 1021.2 hPa Calm     97 % 0 mm
08:34 9.3 °C 8.8 °C 1021.2 hPa Calm     97 % 0 mm
08:34 9.3 °C 8.8 °C 1021.2 hPa Calm     97 % 0 mm
08:34 9.3 °C 8.8 °C 1021.2 hPa Calm     97 % 0 mm
08:34 9.3 °C 8.8 °C 1021.2 hPa Calm     97 % 0 mm
08:34 9.3 °C 8.8 °C 1021.2 hPa Calm     97 % 0 mm
08:34 9.3 °C 8.8 °C 1021.2 hPa Calm     97 % 0 mm
08:34 9.3 °C 8.8 °C 1021.2 hPa Calm     97 % 0 mm
08:34 9.3 °C 8.8 °C 1021.2 hPa Calm     97 % 0 mm
08:35 9.3 °C 8.8 °C 1021.2 hPa Calm     97 % 0 mm
08:35 9.3 °C 8.8 °C 1021.2 hPa Calm     97 % 0 mm
08:35 9.3 °C 8.8 °C 1021.2 hPa Calm     97 % 0 mm
08:35 9.3 °C 8.9 °C 1021.2 hPa Calm     97 % 0 mm
08:35 9.3 °C 8.9 °C 1021.2 hPa Calm     97 % 0 mm
08:35 9.3 °C 8.9 °C 1021.2 hPa Calm     97 % 0 mm
08:35 9.3 °C 8.8 °C 1021.2 hPa Calm     97 % 0 mm
08:35 9.3 °C 8.8 °C 1021.2 hPa Calm     97 % 0 mm
08:35 9.3 °C 8.8 °C 1021.2 hPa Calm     97 % 0 mm
08:35 9.3 °C 8.9 °C 1021.2 hPa Calm     97 % 0 mm
08:35 9.3 °C 8.9 °C 1021.2 hPa Calm     97 % 0 mm
08:35 9.3 °C 8.9 °C 1021.2 hPa Calm     97 % 0 mm
08:36 9.3 °C 8.9 °C 1021.2 hPa Calm     97 % 0 mm
08:36 9.3 °C 8.9 °C 1021.2 hPa Calm     97 % 0 mm
08:36 9.3 °C 8.9 °C 1021.2 hPa Calm     97 % 0 mm
08:36 9.3 °C 8.9 °C 1021.2 hPa Calm     97 % 0 mm
08:36 9.3 °C 8.9 °C 1021.2 hPa Calm     97 % 0 mm
08:36 9.3 °C 8.9 °C 1021.2 hPa Calm     97 % 0 mm
08:36 9.3 °C 8.9 °C 1021.2 hPa Calm     97 % 0 mm
08:36 9.3 °C 8.9 °C 1021.2 hPa Calm     97 % 0 mm
08:36 9.3 °C 8.9 °C 1021.2 hPa Calm     97 % 0 mm
08:36 9.3 °C 8.9 °C 1021.2 hPa Calm     97 % 0 mm
08:36 9.3 °C 8.9 °C 1021.2 hPa Calm     97 % 0 mm
08:37 9.3 °C 8.9 °C 1021.2 hPa Calm     97 % 0 mm
08:37 9.3 °C 8.9 °C 1021.2 hPa Calm     97 % 0 mm
08:37 9.3 °C 8.9 °C 1021.2 hPa Calm     97 % 0 mm
08:37 9.3 °C 8.9 °C 1021.2 hPa Calm     97 % 0 mm
08:37 9.3 °C 8.9 °C 1021.2 hPa Calm     97 % 0 mm
08:37 9.3 °C 8.9 °C 1021.2 hPa Calm     97 % 0 mm
08:37 9.3 °C 8.9 °C 1021.2 hPa Calm     97 % 0 mm
08:37 9.4 °C 8.9 °C 1021.2 hPa Calm     97 % 0 mm
08:37 9.4 °C 8.9 °C 1021.2 hPa Calm     97 % 0 mm
08:37 9.3 °C 8.9 °C 1021.2 hPa Calm     97 % 0 mm
08:37 9.3 °C 8.9 °C 1021.2 hPa Calm     97 % 0 mm
08:37 9.3 °C 8.9 °C 1021.2 hPa Calm     97 % 0 mm
08:37 9.3 °C 8.9 °C 1021.2 hPa Calm     97 % 0 mm
08:38 9.4 °C 8.9 °C 1021.2 hPa Calm     97 % 0 mm
08:38 9.3 °C 8.9 °C 1021.2 hPa Calm     97 % 0 mm
08:38 9.3 °C 8.9 °C 1021.2 hPa Calm     97 % 0 mm
08:38 9.3 °C 8.9 °C 1021.2 hPa Calm     97 % 0 mm
08:38 9.3 °C 8.9 °C 1021.2 hPa Calm     97 % 0 mm
08:38 9.3 °C 8.9 °C 1021.2 hPa Calm     97 % 0 mm
08:38 9.3 °C 8.9 °C 1021.2 hPa Calm     97 % 0 mm
08:38 9.3 °C 8.9 °C 1021.2 hPa Calm     97 % 0 mm
08:38 9.3 °C 8.9 °C 1021.2 hPa Calm     97 % 0 mm
08:38 9.3 °C 8.9 °C 1021.2 hPa Calm     97 % 0 mm
08:38 9.3 °C 8.9 °C 1021.2 hPa Calm     97 % 0 mm
08:39 9.3 °C 8.9 °C 1021.2 hPa Calm     97 % 0 mm
08:39 9.3 °C 8.9 °C 1021.2 hPa Calm     97 % 0 mm
08:39 9.3 °C 8.9 °C 1021.2 hPa Calm     97 % 0 mm
08:39 9.3 °C 8.9 °C 1021.2 hPa Calm     97 % 0 mm
08:39 9.3 °C 8.9 °C 1021.2 hPa Calm     97 % 0 mm
08:39 9.3 °C 8.9 °C 1021.2 hPa Calm     97 % 0 mm
08:39 9.3 °C 8.9 °C 1021.2 hPa Calm     97 % 0 mm
08:39 9.3 °C 8.9 °C 1021.2 hPa Calm     97 % 0 mm
08:39 9.3 °C 8.9 °C 1021.2 hPa Calm     97 % 0 mm
08:39 9.3 °C 8.9 °C 1021.2 hPa Calm     97 % 0 mm
08:39 9.3 °C 8.9 °C 1021.2 hPa Calm     97 % 0 mm
08:39 9.3 °C 8.9 °C 1021.2 hPa Calm     97 % 0 mm
08:39 9.3 °C 8.9 °C 1021.2 hPa Calm     97 % 0 mm
08:40 9.3 °C 8.9 °C 1021.2 hPa Calm     97 % 0 mm
08:40 9.3 °C 8.9 °C 1021.2 hPa Calm     97 % 0 mm
08:40 9.3 °C 8.9 °C 1021.2 hPa Calm     97 % 0 mm
08:40 9.3 °C 8.9 °C 1021.2 hPa Calm     97 % 0 mm
08:40 9.3 °C 8.9 °C 1021.2 hPa Calm     97 % 0 mm
08:40 9.3 °C 8.9 °C 1021.2 hPa Calm     97 % 0 mm
08:40 9.3 °C 8.9 °C 1021.2 hPa Calm     97 % 0 mm
08:40 9.3 °C 8.9 °C 1021.2 hPa Calm     97 % 0 mm
08:40 9.3 °C 8.9 °C 1021.2 hPa Calm     97 % 0 mm
08:40 9.3 °C 8.9 °C 1021.2 hPa Calm     97 % 0 mm
08:40 9.3 °C 8.9 °C 1021.2 hPa Calm     97 % 0 mm
08:40 9.3 °C 8.9 °C 1021.2 hPa Calm     97 % 0 mm
08:41 9.3 °C 8.9 °C 1021.2 hPa Calm     97 % 0 mm
08:41 9.3 °C 8.9 °C 1021.2 hPa Calm     97 % 0 mm
08:41 9.3 °C 8.9 °C 1021.2 hPa Calm     97 % 0 mm
08:41 9.3 °C 8.9 °C 1021.2 hPa Calm     97 % 0 mm
08:41 9.3 °C 8.9 °C 1021.2 hPa Calm     97 % 0 mm
08:41 9.3 °C 8.9 °C 1021.2 hPa Calm     97 % 0 mm
08:41 9.3 °C 8.9 °C 1021.2 hPa Calm     97 % 0 mm
08:41 9.3 °C 8.9 °C 1021.2 hPa Calm     97 % 0 mm
08:41 9.3 °C 8.9 °C 1021.2 hPa Calm     97 % 0 mm
08:41 9.3 °C 8.9 °C 1021.2 hPa Calm     97 % 0 mm
08:41 9.3 °C 8.9 °C 1021.2 hPa Calm     97 % 0 mm
08:41 9.3 °C 8.9 °C 1021.2 hPa Calm     97 % 0 mm
08:42 9.3 °C 8.9 °C 1021.2 hPa Calm     97 % 0 mm
08:42 9.3 °C 8.9 °C 1021.2 hPa Calm     97 % 0 mm
08:42 9.3 °C 8.9 °C 1021.2 hPa Calm     97 % 0 mm
08:42 9.3 °C 8.9 °C 1021.2 hPa Calm     97 % 0 mm
08:42 9.3 °C 8.9 °C 1021.2 hPa Calm     97 % 0 mm
08:42 9.3 °C 8.9 °C 1021.2 hPa Calm     97 % 0 mm
08:42 9.3 °C 8.9 °C 1021.2 hPa Calm     97 % 0 mm
08:42 9.3 °C 8.9 °C 1021.2 hPa Calm     97 % 0 mm
08:43 9.4 °C 8.9 °C 1021.2 hPa Calm     97 % 0 mm
08:43 9.4 °C 8.9 °C 1021.2 hPa Calm     97 % 0 mm
08:43 9.3 °C 8.9 °C 1021.2 hPa Calm     97 % 0 mm
08:43 9.3 °C 8.9 °C 1021.2 hPa Calm     97 % 0 mm
08:43 9.4 °C 8.9 °C 1021.2 hPa Calm     97 % 0 mm
08:43 9.4 °C 8.9 °C 1021.2 hPa Calm     97 % 0 mm
08:44 9.4 °C 8.9 °C 1021.2 hPa Calm     97 % 0 mm
08:44 9.4 °C 8.9 °C 1021.2 hPa Calm     97 % 0 mm
08:44 9.3 °C 8.9 °C 1021.2 hPa Calm     97 % 0 mm
08:44 9.3 °C 8.9 °C 1021.2 hPa Calm     97 % 0 mm
08:44 9.3 °C 8.9 °C 1021.2 hPa Calm     97 % 0 mm
08:44 9.3 °C 8.9 °C 1021.2 hPa Calm     97 % 0 mm
08:44 9.4 °C 8.9 °C 1021.2 hPa Calm     97 % 0 mm
08:44 9.4 °C 8.9 °C 1021.2 hPa Calm     97 % 0 mm
08:44 9.4 °C 8.9 °C 1021.2 hPa Calm     97 % 0 mm
08:44 9.4 °C 8.9 °C 1021.6 hPa Calm     97 % 0 mm
08:44 9.4 °C 8.9 °C 1021.6 hPa Calm     97 % 0 mm
08:45 9.3 °C 8.9 °C 1021.2 hPa Calm     97 % 0 mm
08:45 9.4 °C 8.9 °C 1021.6 hPa Calm     97 % 0 mm
08:45 9.4 °C 8.9 °C 1021.6 hPa Calm     97 % 0 mm
08:45 9.4 °C 8.9 °C 1021.6 hPa Calm     97 % 0 mm
08:45 9.4 °C 8.9 °C 1021.2 hPa Calm     97 % 0 mm
08:45 9.4 °C 8.9 °C 1021.2 hPa Calm     97 % 0 mm
08:45 9.4 °C 8.9 °C 1021.2 hPa Calm     97 % 0 mm
08:45 9.4 °C 8.9 °C 1021.2 hPa Calm     97 % 0 mm
08:45 9.4 °C 8.9 °C 1021.6 hPa Calm     97 % 0 mm
08:45 9.4 °C 8.9 °C 1021.6 hPa Calm     97 % 0 mm
08:45 9.4 °C 8.9 °C 1021.6 hPa Calm     97 % 0 mm
08:46 9.4 °C 8.9 °C 1021.6 hPa Calm     97 % 0 mm
08:46 9.4 °C 8.9 °C 1021.6 hPa Calm     97 % 0 mm
08:46 9.4 °C 8.9 °C 1021.6 hPa Calm     97 % 0 mm
08:46 9.4 °C 8.9 °C 1021.6 hPa Calm     97 % 0 mm
08:46 9.4 °C 8.9 °C 1021.6 hPa Calm     97 % 0 mm
08:46 9.4 °C 8.9 °C 1021.6 hPa Calm     97 % 0 mm
08:46 9.4 °C 8.9 °C 1021.6 hPa Calm     97 % 0 mm
08:46 9.4 °C 8.9 °C 1021.6 hPa Calm     97 % 0 mm
08:46 9.4 °C 8.9 °C 1021.6 hPa Calm     97 % 0 mm
08:46 9.4 °C 8.9 °C 1021.6 hPa Calm     97 % 0 mm
08:46 9.4 °C 8.9 °C 1021.6 hPa Calm     97 % 0 mm
08:47 9.4 °C 8.9 °C 1021.6 hPa Calm     97 % 0 mm
08:47 9.4 °C 8.9 °C 1021.2 hPa Calm     97 % 0 mm
08:47 9.4 °C 8.9 °C 1021.2 hPa Calm     97 % 0 mm
08:47 9.4 °C 8.9 °C 1021.2 hPa Calm     97 % 0 mm
08:47 9.4 °C 8.9 °C 1021.2 hPa Calm     97 % 0 mm
08:47 9.4 °C 8.9 °C 1021.2 hPa Calm     97 % 0 mm
08:47 9.4 °C 8.9 °C 1021.2 hPa Calm     97 % 0 mm
08:47 9.4 °C 8.9 °C 1021.2 hPa Calm     97 % 0 mm
08:47 9.4 °C 8.9 °C 1021.2 hPa Calm     97 % 0 mm
08:47 9.4 °C 8.9 °C 1021.2 hPa Calm     97 % 0 mm
08:47 9.4 °C 8.9 °C 1021.2 hPa Calm     97 % 0 mm
08:47 9.4 °C 8.9 °C 1021.2 hPa Calm     97 % 0 mm
08:48 9.4 °C 8.9 °C 1021.2 hPa Calm     97 % 0 mm
08:48 9.4 °C 8.9 °C 1021.2 hPa Calm     97 % 0 mm
08:48 9.4 °C 8.9 °C 1021.2 hPa Calm     97 % 0 mm
08:48 9.4 °C 8.9 °C 1021.2 hPa Calm     97 % 0 mm
08:48 9.4 °C 8.9 °C 1021.2 hPa Calm     97 % 0 mm
08:48 9.4 °C 8.9 °C 1021.2 hPa Calm     97 % 0 mm
08:48 9.4 °C 8.9 °C 1021.2 hPa Calm     97 % 0 mm
08:48 9.4 °C 8.9 °C 1021.2 hPa Calm     97 % 0 mm
08:48 9.4 °C 8.9 °C 1021.2 hPa Calm     97 % 0 mm
08:48 9.4 °C 8.9 °C 1021.2 hPa Calm     97 % 0 mm
08:48 9.4 °C 8.9 °C 1021.2 hPa Calm     97 % 0 mm
08:49 9.4 °C 8.9 °C 1021.2 hPa Calm     97 % 0 mm
08:49 9.4 °C 8.9 °C 1021.2 hPa Calm     97 % 0 mm
08:49 9.4 °C 8.9 °C 1021.2 hPa Calm     97 % 0 mm
08:49 9.4 °C 8.9 °C 1021.6 hPa Calm     97 % 0 mm
08:49 9.4 °C 8.9 °C 1021.6 hPa Calm     97 % 0 mm
08:49 9.4 °C 9 °C 1021.6 hPa Calm     97 % 0 mm
08:49 9.4 °C 9 °C 1021.6 hPa Calm     97 % 0 mm
08:49 9.4 °C 9 °C 1021.6 hPa Calm     97 % 0 mm
08:49 9.4 °C 9 °C 1021.6 hPa Calm     97 % 0 mm
08:49 9.4 °C 9 °C 1021.6 hPa Calm     97 % 0 mm
08:49 9.4 °C 9 °C 1021.6 hPa Calm     97 % 0 mm
08:49 9.4 °C 9 °C 1021.6 hPa Calm     97 % 0 mm
08:49 9.4 °C 9 °C 1021.6 hPa Calm     97 % 0 mm
08:49 9.4 °C 9 °C 1021.6 hPa Calm     97 % 0 mm
08:50 9.4 °C 9 °C 1021.6 hPa Calm     97 % 0 mm
08:50 9.4 °C 9 °C 1021.6 hPa Calm     97 % 0 mm
08:50 9.4 °C 9 °C 1021.6 hPa Calm     97 % 0 mm
08:50 9.4 °C 9 °C 1021.6 hPa Calm     97 % 0 mm
08:50 9.4 °C 9 °C 1021.6 hPa Calm     97 % 0 mm
08:50 9.4 °C 9 °C 1021.6 hPa Calm     97 % 0 mm
08:50 9.4 °C 9 °C 1021.6 hPa Calm     97 % 0 mm
08:50 9.4 °C 9 °C 1021.2 hPa Calm     97 % 0 mm
09:01 9.6 °C 9.1 °C 1021.6 hPa Calm     97 % 0 mm
09:13 9.6 °C 9.2 °C 1021.6 hPa Calm     97 % 0 mm
09:25 9.7 °C 9.2 °C 1021.6 hPa Calm     97 % 0 mm
09:37 9.7 °C 9.2 °C 1021.6 hPa North 3.7 km/h 2.6 km/h 97 % 0 mm
09:44 9.7 °C 9.3 °C 1021.9 hPa North 5.6 km/h 3.1 km/h 97 % 0 mm
09:49 9.8 °C 9.3 °C 1021.9 hPa North 3.7 km/h 1.8 km/h 97 % 0 mm
09:54 9.8 °C 9.3 °C 1021.9 hPa North 3.7 km/h 1 km/h 97 % 0 mm
09:59 9.8 °C 9.4 °C 1021.9 hPa North 5.6 km/h 3.2 km/h 97 % 0 mm
10:04 9.7 °C 9.3 °C 1021.9 hPa North 3.7 km/h 0.6 km/h 97 % 0 mm
10:09 9.7 °C 9.3 °C 1021.9 hPa Calm     97 % 0 mm
10:14 9.6 °C 9.2 °C 1021.9 hPa North 5.6 km/h 0.3 km/h 97 % 0 mm
10:19 9.6 °C 9.2 °C 1022.2 hPa North 3.7 km/h 1.6 km/h 97 % 0 mm
10:24 9.5 °C 9.1 °C 1022.2 hPa North 3.7 km/h 0.6 km/h 97 % 0 mm
10:29 9.5 °C 9.1 °C 1022.2 hPa North 1.9 km/h   97 % 0 mm
10:34 9.5 °C 9.1 °C 1022.2 hPa North 3.7 km/h 2.6 km/h 97 % 0 mm
10:39 9.6 °C 9.1 °C 1022.2 hPa North 1.9 km/h 0.2 km/h 97 % 0 mm
10:44 9.7 °C 9.2 °C 1022.2 hPa North 3.7 km/h 2.3 km/h 97 % 0 mm
10:49 9.7 °C 9.2 °C 1022.2 hPa North 5.6 km/h 2.3 km/h 97 % 0 mm
10:54 9.7 °C 9.2 °C 1022.2 hPa North 1.9 km/h 1.1 km/h 97 % 0 mm
10:59 9.8 °C 9.4 °C 1021.9 hPa Calm     97 % 0 mm
11:04 10 °C 9.6 °C 1021.9 hPa North 3.7 km/h 1.9 km/h 97 % 0 mm
11:09 10.1 °C 9.7 °C 1021.9 hPa North 5.6 km/h 1.8 km/h 97 % 0 mm
11:14 10.3 °C 9.9 °C 1021.9 hPa North 5.6 km/h 3.2 km/h 97 % 0 mm
11:19 10.3 °C 9.9 °C 1021.9 hPa North 5.6 km/h 4.7 km/h 97 % 0 mm
11:24 10.3 °C 9.7 °C 1021.9 hPa North 3.7 km/h 2.4 km/h 96 % 0 mm
11:29 10.2 °C 9.6 °C 1021.9 hPa North 7.4 km/h 6.8 km/h 96 % 0 mm
11:34 10.1 °C 9.3 °C 1021.9 hPa North 7.4 km/h 3.2 km/h 95 % 0 mm
11:39 10.3 °C 9.5 °C 1021.9 hPa North 5.6 km/h 2.6 km/h 95 % 0 mm
11:44 10.4 °C 9.6 °C 1021.9 hPa North 5.6 km/h 1.9 km/h 95 % 0 mm
11:49 10.5 °C 9.6 °C 1021.6 hPa Calm     94 % 0 mm
11:54 10.8 °C 9.8 °C 1021.6 hPa North 4.8 km/h 0.3 km/h 94 % 0 mm
11:59 11.1 °C 9.9 °C 1021.6 hPa North 5.6 km/h 3.4 km/h 93 % 0 mm
12:04 11.1 °C 9.7 °C 1021.6 hPa North 1.9 km/h 1.1 km/h 91 % 0 mm
12:09 11.2 °C 9.7 °C 1021.6 hPa North 5.6 km/h 2.9 km/h 90 % 0 mm
12:14 11.4 °C 9.4 °C 1021.6 hPa North 3.7 km/h 2.7 km/h 88 % 0 mm
12:19 11.9 °C 9.7 °C 1021.6 hPa North 7.4 km/h 6.8 km/h 86 % 0 mm
12:24 12.4 °C 9.8 °C 1021.6 hPa North 5.6 km/h 6.9 km/h 84 % 0 mm
12:29 12.6 °C 9.6 °C 1021.6 hPa North 7.4 km/h 4.8 km/h 82 % 0 mm
12:34 12.7 °C 9.2 °C 1021.6 hPa North 11.3 km/h 6.6 km/h 79 % 0 mm
12:39 12.4 °C 8.8 °C 1021.6 hPa North 9.3 km/h 7.6 km/h 79 % 0 mm
12:44 12.3 °C 9.1 °C 1021.6 hPa North 13 km/h 8.2 km/h 81 % 0 mm
12:49 12.3 °C 8.9 °C 1021.6 hPa NNW 11.3 km/h 6.8 km/h 80 % 0 mm
12:54 12.3 °C 8.7 °C 1021.6 hPa North 12.9 km/h 7.2 km/h 79 % 0 mm
12:59 12.1 °C 8.6 °C 1021.9 hPa North 11.1 km/h 8.9 km/h 79 % 0 mm
13:04 12.2 °C 8.4 °C 1021.6 hPa North 9.3 km/h 7.1 km/h 78 % 0 mm
13:09 12.2 °C 8.7 °C 1021.6 hPa NW 7.4 km/h 5.1 km/h 79 % 0 mm
13:14 12.5 °C 8.8 °C 1021.6 hPa NW 8 km/h 1.4 km/h 78 % 0 mm
13:15 12.6 °C 8.8 °C 1021.6 hPa NW 7.4 km/h 3.5 km/h 78 % 0 mm
15:39 13.8 °C 7.3 °C 1021.2 hPa Calm     65 % 0 mm
15:44 13.9 °C 7.2 °C 1021.2 hPa Calm     64 % 0 mm
15:49 13.9 °C 7.4 °C 1021.6 hPa Calm     65 % 0 mm
15:54 14.1 °C 7.6 °C 1021.6 hPa NW 3.7 km/h   65 % 0 mm
15:59 14 °C 7.5 °C 1021.6 hPa NW 1.9 km/h 0.2 km/h 65 % 0 mm
16:04 13.8 °C 7.3 °C 1021.6 hPa NW 3.7 km/h 2.1 km/h 65 % 0 mm
16:09 13.6 °C 7.1 °C 1021.6 hPa NW 3.7 km/h 2.3 km/h 65 % 0 mm
16:14 13.4 °C 7.2 °C 1021.6 hPa NW 3.7 km/h 0.6 km/h 66 % 0 mm
16:19 13.2 °C 7.2 °C 1021.6 hPa Calm     67 % 0 mm
16:24 13.1 °C 7.3 °C 1021.6 hPa Calm     68 % 0 mm
16:29 12.8 °C 7.3 °C 1021.6 hPa Calm     69 % 0 mm
16:34 12.4 °C 7.1 °C 1021.6 hPa Calm     70 % 0 mm
16:39 12.2 °C 7.1 °C 1021.9 hPa Calm     71 % 0 mm
16:44 11.9 °C 7.1 °C 1021.9 hPa Calm     72 % 0 mm
16:49 11.7 °C 7.1 °C 1021.9 hPa Calm     73 % 0 mm
16:54 11.5 °C 6.8 °C 1021.9 hPa Calm     73 % 0 mm
16:59 11.4 °C 6.9 °C 1021.9 hPa Calm     74 % 0 mm
17:04 11.2 °C 6.9 °C 1021.9 hPa Calm     75 % 0 mm
17:09 10.9 °C 6.8 °C 1021.9 hPa Calm     76 % 0 mm
17:14 10.5 °C 6.8 °C 1021.9 hPa North 3.7 km/h 1.1 km/h 78 % 0 mm
17:19 10.4 °C 7.1 °C 1021.9 hPa Calm     80 % 0 mm
17:24 10.2 °C 6.9 °C 1022.2 hPa Calm     80 % 0 mm
17:29 10.1 °C 6.8 °C 1022.2 hPa Calm     80 % 0 mm
17:34 9.8 °C 6.7 °C 1022.2 hPa North 3.7 km/h   81 % 0 mm
17:39 9.7 °C 6.9 °C 1022.2 hPa Calm     83 % 0 mm
17:44 9.4 °C 6.7 °C 1022.2 hPa Calm     83 % 0 mm
17:49 9.3 °C 6.7 °C 1022.2 hPa Calm     84 % 0 mm
17:54 9.2 °C 6.8 °C 1022.2 hPa Calm     85 % 0 mm
17:59 9.1 °C 6.7 °C 1022.6 hPa Calm     85 % 0 mm
18:04 8.9 °C 6.5 °C 1022.6 hPa Calm     85 % 0 mm
18:09 8.7 °C 6.5 °C 1022.6 hPa Calm     86 % 0 mm
18:14 8.6 °C 6.3 °C 1022.6 hPa Calm     86 % 0 mm
18:19 8.4 °C 6.2 °C 1022.6 hPa Calm     86 % 0 mm
18:24 8.2 °C 6.2 °C 1022.6 hPa Calm     87 % 0 mm
18:29 8.1 °C 6 °C 1022.6 hPa Calm     87 % 0 mm
18:34 7.9 °C 6.1 °C 1022.9 hPa Calm     88 % 0 mm
18:39 7.8 °C 5.9 °C 1022.9 hPa Calm     88 % 0 mm
18:44 7.6 °C 5.6 °C 1022.9 hPa Calm     87 % 0 mm
18:49 7.3 °C 5.5 °C 1022.9 hPa Calm     88 % 0 mm
18:54 7.2 °C 5.6 °C 1023.2 hPa Calm     89 % 0 mm
18:59 7.1 °C 5.4 °C 1023.2 hPa Calm     89 % 0 mm
19:04 7 °C 5.3 °C 1023.2 hPa Calm     89 % 0 mm
19:09 6.9 °C 5.2 °C 1023.2 hPa Calm     89 % 0 mm
19:14 6.8 °C 5.3 °C 1023.6 hPa Calm     90 % 0 mm
19:19 6.6 °C 5.1 °C 1023.6 hPa Calm     90 % 0 mm
19:24 6.5 °C 5 °C 1023.6 hPa Calm     90 % 0 mm
19:29 6.4 °C 4.9 °C 1023.6 hPa Calm     90 % 0 mm
19:34 6.3 °C 4.8 °C 1023.6 hPa Calm     90 % 0 mm
19:39 6.3 °C 4.9 °C 1023.6 hPa Calm     91 % 0 mm
19:44 6.3 °C 4.9 °C 1023.6 hPa Calm     91 % 0 mm
19:49 6.3 °C 4.9 °C 1023.9 hPa Calm     91 % 0 mm
19:54 6.2 °C 4.8 °C 1023.9 hPa Calm     91 % 0 mm
19:59 5.9 °C 4.6 °C 1023.9 hPa Calm     91 % 0 mm
20:04 5.8 °C 4.4 °C 1023.9 hPa Calm     91 % 0 mm
20:09 5.7 °C 4.3 °C 1023.9 hPa Calm     91 % 0 mm
20:14 5.4 °C 3.9 °C 1023.9 hPa Calm     90 % 0 mm
20:19 5.2 °C 3.8 °C 1023.9 hPa Calm     91 % 0 mm
20:24 5.1 °C 3.8 °C 1024.3 hPa Calm     91 % 0 mm
20:27 5.1 °C 3.7 °C 1023.9 hPa Calm     91 % 0 mm
20:39 4.9 °C 3.7 °C 1024.3 hPa Calm     92 % 0 mm
20:44 5 °C 3.9 °C 1024.3 hPa Calm     93 % 0 mm
20:49 5.1 °C 4.1 °C 1024.3 hPa Calm     93 % 0 mm
20:54 5.1 °C 3.9 °C 1024.3 hPa Calm     92 % 0 mm
20:59 5.1 °C 4 °C 1024.3 hPa Calm     93 % 0 mm
21:04 5.1 °C 4 °C 1024.3 hPa Calm     93 % 0 mm
21:09 5.1 °C 4 °C 1024.3 hPa Calm     93 % 0 mm
21:14 4.9 °C 3.9 °C 1024.6 hPa Calm     93 % 0 mm
21:19 4.9 °C 3.8 °C 1024.6 hPa Calm     93 % 0 mm
21:24 4.8 °C 3.7 °C 1024.6 hPa Calm     93 % 0 mm
21:29 4.7 °C 3.6 °C 1024.6 hPa Calm     93 % 0 mm
21:34 4.5 °C 3.4 °C 1024.6 hPa Calm     93 % 0 mm
21:39 4.4 °C 3.4 °C 1024.6 hPa Calm     93 % 0 mm
21:44 4.3 °C 3.2 °C 1024.6 hPa Calm     93 % 0 mm
21:49 4.3 °C 3.4 °C 1024.6 hPa Calm     94 % 0 mm
21:54 4.3 °C 3.2 °C 1024.9 hPa Calm     93 % 0 mm
21:59 4.2 °C 3.2 °C 1024.9 hPa Calm     93 % 0 mm
22:04 4.2 °C 3.1 °C 1024.9 hPa Calm     93 % 0 mm
22:09 4.1 °C 3 °C 1024.9 hPa Calm     93 % 0 mm
22:14 3.9 °C 2.9 °C 1024.9 hPa Calm     93 % 0 mm
22:19 3.8 °C 2.8 °C 1024.9 hPa Calm     93 % 0 mm
22:24 3.8 °C 2.9 °C 1024.9 hPa Calm     94 % 0 mm
22:29 3.8 °C 2.9 °C 1024.9 hPa Calm     94 % 0 mm
22:34 3.9 °C 3 °C 1024.9 hPa Calm     94 % 0 mm
22:39 3.9 °C 3.1 °C 1024.9 hPa Calm     94 % 0 mm
22:44 4.1 °C 3.2 °C 1024.9 hPa Calm     94 % 0 mm
22:49 4.1 °C 3.2 °C 1024.9 hPa Calm     94 % 0 mm
22:54 4.2 °C 3.3 °C 1024.9 hPa NW 3.7 km/h 1.9 km/h 94 % 0 mm
22:59 4.2 °C 3.3 °C 1024.9 hPa Calm     94 % 0 mm
23:04 4.1 °C 3.2 °C 1024.9 hPa Calm     94 % 0 mm
23:09 3.9 °C 2.9 °C 1024.9 hPa Calm     93 % 0 mm
23:14 3.8 °C 2.7 °C 1024.9 hPa Calm     93 % 0 mm
23:19 3.4 °C 2.4 °C 1024.9 hPa Calm     93 % 0 mm
23:24 3.3 °C 2.3 °C 1024.9 hPa Calm     93 % 0 mm
23:29 3.1 °C 2.2 °C 1024.9 hPa Calm     94 % 0 mm
23:34 3 °C 2 °C 1024.9 hPa Calm     93 % 0 mm
23:39 2.8 °C 1.8 °C 1024.9 hPa Calm     93 % 0 mm
23:44 2.7 °C 1.8 °C 1024.9 hPa Calm     94 % 0 mm
23:49 2.6 °C 1.7 °C 1024.9 hPa Calm     94 % 0 mm
23:54 2.5 °C 1.6 °C 1024.9 hPa Calm     94 % 0 mm
23:59 2.4 °C 1.4 °C 1024.9 hPa Calm     93 % 0.25 mm
Ararat Weather
Compliments of Weather Underground - 6 mb
Click here to send mail.


ABOUT

Live weather data from Ararat, Victoria, Australia, 3377
Data uploaded from Cumulus every 5 minutes to Weather Underground.
This site then downloads the raw data for formatting and display.
Metric and imperial data can be displayed. Graphs and historical data available.
Includes Sun and Moon times and rain image live from BOM.

Check out Ararat Weather on Facebook, Twitter and Google +

Help support ongoing costs by checking out the ads





Follow @AraratWeather